W2GRK-15 Weather Reports


time (UTC)temp
C
wind
direction
speed
KPH
gust
KPH
rain 1hr
cm
rain 24hr
cm
rain mn
cm
humidity
%
barometer
mb
20260510203726 22 264 1.6 4.8 0.00 0.20 0.00 55 1013.2
20260510203621 22 320 3.2 4.8 0.00 0.20 0.00 54 1013.0
20260510203517 22 195 1.6 3.2 0.00 0.20 0.00 55 1013.1
20260510203428 22 233 3.2 9.7 0.00 0.20 0.00 55 1013.0
20260510203324 22 336 3.2 4.8 0.00 0.20 0.00 54 1013.1
20260510203220 23 276 1.6 3.2 0.00 0.20 0.00 54 1013.1
20260510203115 23 229 1.6 4.8 0.00 0.20 0.00 55 1013.1
20260510203047 23 357 1.6 4.8 0.00 0.20 0.00 54 1013.0
20260510202922 23 202 1.6 3.2 0.00 0.20 0.00 54 1013.0
20260510202838 23 280 4.8 8.0 0.00 0.20 0.00 53 1013.0
20260510202750 23 336 4.8 6.4 0.00 0.20 0.00 52 1012.9
20260510202645 23 357 3.2 6.4 0.00 0.20 0.00 53 1013.0
20260510202521 23 224 1.6 4.8 0.00 0.20 0.00 53 1013.0
20260510202417 23 227 4.8 8.0 0.00 0.20 0.00 52 1012.9
20260510202328 23 223 4.8 8.0 0.00 0.20 0.00 53 1012.9
20260510202224 23 223 1.6 4.8 0.00 0.20 0.00 52 1013.0
20260510202119 23 199 3.2 4.8 0.00 0.20 0.00 52 1012.9
20260510202031 23 200 1.6 4.8 0.00 0.20 0.00 52 1013.0
20260510201927 23 203 3.2 6.4 0.00 0.20 0.00 52 1013.1
20260510201822 23 337 1.6 4.8 0.00 0.20 0.00 51 1013.0
20260510201718 23 227 6.4 9.7 0.00 0.20 0.00 50 1013.0
20260510201630 23 172 1.6 3.2 0.00 0.20 0.00 51 1012.9
20260510201525 23 206 1.6 3.2 0.00 0.20 0.00 51 1012.9
20260510201421 23 230 0.0 3.2 0.00 0.20 0.00 50 1012.8
20260510201316 23 182 3.2 4.8 0.00 0.20 0.00 50 1013.0
20260510201228 23 267 3.2 4.8 0.00 0.20 0.00 50 1013.1
20260510201124 23 213 4.8 8.0 0.00 0.20 0.00 50 1013.0
20260510201039 23 204 3.2 4.8 0.00 0.20 0.00 50 1012.9
20260510200951 23 203 4.8 6.4 0.00 0.20 0.00 50 1012.9
20260510200907 23 316 6.4 14.5 0.00 0.20 0.00 48 1012.9
20260510200722 23 330 11.3 19.3 0.00 0.20 0.00 49 1013.0
20260510200618 23 258 4.8 8.0 0.00 0.20 0.00 50 1012.8
20260510200529 23 223 3.2 4.8 0.00 0.20 0.00 52 1012.9
20260510200425 23 17 3.2 4.8 0.00 0.20 0.00 50 1012.8
20260510200321 23 260 1.6 4.8 0.00 0.20 0.00 52 1012.9
20260510200216 23 195 1.6 3.2 0.00 0.20 0.00 53 1013.0
20260510200128 23 246 1.6 3.2 0.00 0.20 0.00 51 1012.8
20260510200044 23 232 3.2 4.8 0.00 0.20 0.00 51 1013.0
20260510195919 23 238 3.2 3.2 0.00 0.20 0.00 50 1013.0
20260510195831 23 36 3.2 4.8 0.00 0.20 0.00 50 1013.0
20260510195726 23 327 4.8 8.0 0.00 0.20 0.00 49 1013.0
20260510195622 23 212 3.2 4.8 0.00 0.20 0.00 49 1012.9
20260510195537 23 17 1.6 8.0 0.00 0.20 0.00 49 1013.0
20260510195449 23 309 1.6 6.4 0.00 0.20 0.00 49 1013.0
20260510195324 23 237 3.2 6.4 0.00 0.20 0.00 49 1013.2
20260510195220 23 230 1.6 3.2 0.00 0.20 0.00 49 1012.9
20260510195135 23 19 0.0 3.2 0.00 0.20 0.00 48 1013.0
20260510195027 23 117 1.6 8.0 0.00 0.20 0.00 48 1013.0
20260510194923 23 266 4.8 9.7 0.00 0.20 0.00 48 1013.2
20260510194818 23 174 4.8 9.7 0.00 0.20 0.00 47 1013.0
20260510194730 23 202 3.2 4.8 0.00 0.20 0.00 49 1013.1
20260510194626 23 207 3.2 4.8 0.00 0.20 0.00 49 1013.0
20260510194521 23 278 3.2 6.4 0.00 0.20 0.00 49 1013.1
20260510194417 24 252 3.2 6.4 0.00 0.20 0.00 48 1013.1
20260510194328 24 206 1.6 4.8 0.00 0.20 0.00 48 1013.1
20260510194224 24 205 3.2 4.8 0.00 0.20 0.00 48 1013.3
20260510194120 24 258 3.2 8.0 0.00 0.20 0.00 48 1013.1
20260510194015 24 266 3.2 9.7 0.00 0.20 0.00 48 1013.1
20260510193927 24 288 1.6 4.8 0.00 0.20 0.00 49 1013.2
20260510193823 24 207 4.8 11.3 0.00 0.20 0.00 49 1013.2
20260510193719 24 211 3.2 4.8 0.00 0.20 0.00 49 1013.1
20260510193630 24 220 1.6 3.2 0.00 0.20 0.00 50 1013.2
20260510193526 24 293 3.2 8.0 0.00 0.20 0.00 50 1013.2
20260510193422 24 272 1.6 3.2 0.00 0.20 0.00 51 1013.1
20260510193317 24 284 1.6 3.2 0.00 0.20 0.00 51 1013.2
20260510193229 23 240 1.6 3.2 0.00 0.20 0.00 53 1013.2
20260510193124 23 224 1.6 4.8 0.00 0.20 0.00 50 1013.1
20260510193020 23 209 6.4 9.7 0.00 0.20 0.00 51 1013.1
20260510192916 23 215 4.8 6.4 0.00 0.20 0.00 51 1013.3
20260510192827 23 198 4.8 4.8 0.00 0.20 0.00 51 1013.2
20260510192723 23 219 3.2 3.2 0.00 0.20 0.00 52 1013.1
20260510192639 23 287 3.2 6.4 0.00 0.20 0.00 51 1013.2
20260510192530 23 236 3.2 6.4 0.00 0.20 0.00 52 1013.2
20260510192446 23 207 3.2 4.8 0.00 0.20 0.00 53 1013.1
20260510192321 23 198 4.8 4.8 0.00 0.20 0.00 53 1013.0
20260510192217 23 220 4.8 8.0 0.00 0.20 0.00 52 1013.1
20260510192129 23 189 3.2 6.4 0.00 0.20 0.00 53 1013.1
20260510192025 23 208 6.4 8.0 0.00 0.20 0.00 53 1013.1
20260510191920 23 214 4.8 6.4 0.00 0.20 0.00 53 1013.1
20260510191816 23 191 6.4 9.7 0.00 0.20 0.00 52 1013.1
20260510191807 23 207 6.4 6.4 0.00 0.20 0.00 52 1013.3
20260510191623 24 213 8.0 12.9 0.00 0.20 0.00 51 1013.2
20260510191519 24 202 3.2 6.4 0.00 0.20 0.00 51 1013.4
20260510191431 24 205 1.6 6.4 0.00 0.20 0.00 52 1013.2
20260510191326 24 283 3.2 6.4 0.00 0.20 0.00 52 1013.4
20260510191222 23 320 4.8 4.8 0.00 0.20 0.00 53 1013.2
20260510191117 23 352 3.2 4.8 0.00 0.20 0.00 53 1013.2
20260510191029 23 332 3.2 8.0 0.00 0.20 0.00 53 1013.3
20260510190924 23 260 1.6 3.2 0.00 0.20 0.00 55 1013.3
20260510190820 23 193 3.2 4.8 0.00 0.20 0.00 54 1013.2
20260510190716 23 219 3.2 6.4 0.00 0.20 0.00 56 1013.3
20260510190627 23 180 3.2 6.4 0.00 0.20 0.00 56 1013.3
20260510190523 23 216 4.8 6.4 0.00 0.20 0.00 58 1013.3
20260510190418 23 202 4.8 6.4 0.00 0.20 0.00 57 1013.1
20260510190330 23 193 6.4 6.4 0.00 0.20 0.00 56 1013.3
20260510190225 23 196 6.4 8.0 0.00 0.20 0.00 57 1013.2
20260510190121 23 188 3.2 4.8 0.00 0.20 0.00 57 1013.3
20260510190016 23 193 3.2 4.8 0.00 0.20 0.00 58 1013.3
20260510185948 23 204 4.8 6.4 0.00 0.20 0.00 57 1013.2
20260510185824 23 197 8.0 11.3 0.00 0.20 0.00 56 1013.2
20260510185720 24 196 8.0 9.7 0.00 0.20 0.00 56 1013.3
20260510185635 24 205 4.8 9.7 0.00 0.20 0.00 56 1013.4
20260510185607 24 294 4.8 8.0 0.00 0.20 0.00 57 1013.2
20260510185422 24 334 0.0 3.2 0.00 0.20 0.00 59 1013.3
20260510185318 23 291 1.6 3.2 0.00 0.20 0.00 58 1013.4
20260510185230 23 205 1.6 8.0 0.00 0.20 0.00 57 1013.4
20260510185125 23 196 4.8 9.7 0.00 0.20 0.00 57 1013.3
20260510185021 23 217 3.2 6.4 0.00 0.20 0.00 58 1013.3
20260510184917 23 215 1.6 3.2 0.00 0.20 0.00 58 1013.3
20260510184828 23 252 3.2 4.8 0.00 0.20 0.00 58 1013.4
20260510184724 23 219 3.2 6.4 0.00 0.20 0.00 58 1013.5
20260510184639 23 204 1.6 3.2 0.00 0.20 0.00 59 1013.5
20260510184515 23 196 3.2 8.0 0.00 0.20 0.00 59 1013.4
20260510184427 22 259 3.2 3.2 0.00 0.20 0.00 59 1013.5
20260510184322 22 290 1.6 3.2 0.00 0.20 0.00 59 1013.6
20260510184218 22 204 1.6 4.8 0.00 0.20 0.00 60 1013.2
20260510184130 22 354 3.2 4.8 0.00 0.20 0.00 60 1013.3
20260510184025 22 208 1.6 6.4 0.00 0.20 0.00 61 1013.3
20260510183921 22 313 4.8 6.4 0.00 0.20 0.00 59 1013.3
20260510183816 22 327 4.8 9.7 0.00 0.20 0.00 59 1013.4
20260510183728 22 204 3.2 6.4 0.00 0.20 0.00 60 1013.3
20260510183624 22 213 4.8 6.4 0.00 0.20 0.00 60 1013.3
20260510183520 22 171 3.2 4.8 0.00 0.20 0.00 60 1013.3
20260510183455 22 327 3.2 6.4 0.00 0.20 0.00 59 1013.4
20260510183327 22 255 1.6 4.8 0.00 0.20 0.00 60 1013.4
20260510183222 22 329 4.8 8.0 0.00 0.20 0.00 59 1013.3
20260510183118 22 329 4.8 11.3 0.00 0.20 0.00 58 1013.2
20260510183030 22 326 6.4 11.3 0.00 0.20 0.00 59 1013.3
20260510182925 22 331 3.2 11.3 0.00 0.20 0.00 58 1013.4
20260510182821 23 333 6.4 11.3 0.00 0.20 0.00 57 1013.5
20260510182717 23 342 6.4 16.1 0.00 0.20 0.00 57 1013.4
20260510182628 23 343 3.2 6.4 0.00 0.20 0.00 58 1013.5
20260510182524 23 207 3.2 4.8 0.00 0.23 0.00 59 1013.4
20260510182419 23 204 6.4 9.7 0.00 0.23 0.00 59 1013.2
20260510182351 23 205 3.2 6.4 0.00 0.23 0.00 59 1013.3
20260510182227 23 303 4.8 8.0 0.00 0.23 0.00 58 1013.4
20260510182122 23 337 6.4 12.9 0.00 0.23 0.00 58 1013.2
20260510182018 23 297 6.4 11.3 0.00 0.23 0.00 58 1013.3
20260510181929 23 189 4.8 8.0 0.00 0.23 0.00 59 1013.4
20260510181825 23 180 4.8 9.7 0.00 0.23 0.00 60 1013.4
20260510181721 23 193 6.4 9.7 0.00 0.23 0.00 58 1013.3
20260510181616 23 193 9.7 12.9 0.00 0.23 0.00 58 1013.3
20260510181548 23 206 8.0 11.3 0.00 0.23 0.00 59 1013.2
20260510181424 23 197 8.0 11.3 0.00 0.23 0.00 59 1013.4
20260510181319 24 208 8.0 11.3 0.00 0.23 0.00 57 1013.4
20260510181231 24 182 4.8 9.7 0.00 0.23 0.00 57 1013.4
20260510181126 24 300 3.2 6.4 0.00 0.23 0.00 56 1013.3
20260510181022 24 201 8.0 16.1 0.00 0.23 0.00 56 1013.3
20260510180938 24 205 3.2 8.0 0.00 0.23 0.00 59 1013.3
20260510180829 24 284 3.2 8.0 0.00 0.25 0.00 60 1013.2
20260510180725 23 330 1.6 3.2 0.00 0.25 0.00 59 1013.5
20260510180620 23 225 3.2 4.8 0.00 0.25 0.00 62 1013.5
20260510180516 23 206 1.6 3.2 0.00 0.25 0.00 60 1013.5
20260510180428 23 194 1.6 3.2 0.00 0.25 0.00 60 1013.4
20260510180343 23 206 1.6 3.2 0.00 0.25 0.00 62 1013.4
20260510180219 23 33 1.6 3.2 0.00 0.25 0.00 61 1013.5
20260510180131 23 10 3.2 4.8 0.00 0.25 0.00 60 1013.5
20260510180026 23 28 1.6 4.8 0.00 0.25 0.00 60 1013.4
20260510175922 23 14 1.6 4.8 0.00 0.25 0.00 61 1013.6
20260510175818 23 256 3.2 6.4 0.00 0.25 0.00 61 1013.4
20260510175729 23 205 6.4 9.7 0.00 0.25 0.00 61 1013.4
20260510175625 23 208 6.4 8.0 0.00 0.25 0.00 61 1013.6
20260510175521 22 208 6.4 11.3 0.00 0.25 0.00 62 1013.4
20260510175416 22 193 4.8 8.0 0.00 0.25 0.00 61 1013.4
20260510175328 22 213 3.2 9.7 0.00 0.25 0.00 60 1013.6
20260510175224 22 210 8.0 11.3 0.00 0.25 0.00 60 1013.6
20260510175119 22 197 9.7 16.1 0.00 0.25 0.00 59 1013.4
20260510175015 22 207 8.0 11.3 0.00 0.25 0.00 61 1013.4
20260510174926 22 215 4.8 8.0 0.00 0.25 0.00 60 1013.4
20260510174842 22 216 3.2 4.8 0.00 0.25 0.00 60 1013.5
20260510174738 22 9 3.2 4.8 0.00 0.25 0.00 59 1013.5
20260510174629 23 325 4.8 9.7 0.00 0.25 0.00 59 1013.5
20260510174525 23 201 4.8 6.4 0.00 0.25 0.00 60 1013.4
20260510174421 23 199 6.4 6.4 0.00 0.25 0.00 60 1013.6
20260510174316 23 302 4.8 8.0 0.00 0.25 0.00 58 1013.6
20260510174228 23 310 4.8 8.0 0.00 0.25 0.00 57 1013.4
20260510174124 23 271 3.2 4.8 0.00 0.25 0.00 59 1013.5
20260510174039 23 199 6.4 9.7 0.00 0.25 0.00 57 1013.2
20260510173951 23 205 6.4 11.3 0.00 0.25 0.00 59 1013.3
20260510173826 23 273 3.2 9.7 0.00 0.25 0.00 58 1013.2
20260510173722 23 332 6.4 9.7 0.00 0.25 0.00 58 1013.3
20260510173618 23 287 3.2 4.8 0.00 0.25 0.00 58 1013.3
20260510173529 23 199 4.8 6.4 0.00 0.25 0.00 58 1013.4
20260510173425 23 299 3.2 6.4 0.00 0.25 0.00 57 1013.3
20260510173321 23 34 1.6 4.8 0.00 0.25 0.00 59 1013.5
20260510173216 23 256 4.8 8.0 0.00 0.25 0.00 60 1013.4
20260510173128 23 196 3.2 4.8 0.00 0.25 0.00 63 1013.4
20260510173024 23 286 3.2 4.8 0.00 0.25 0.00 61 1013.2
20260510172939 23 286 1.6 4.8 0.00 0.25 0.00 62 1013.2
20260510172831 23 215 3.2 8.0 0.00 0.25 0.00 64 1013.2
20260510172727 22 219 1.6 6.4 0.00 0.25 0.00 64 1013.1
20260510172622 22 224 1.6 4.8 0.00 0.25 0.00 65 1013.3
20260510172538 22 198 3.2 6.4 0.00 0.25 0.00 65 1013.3
20260510172429 22 192 6.4 8.0 0.00 0.25 0.00 64 1013.3
20260510172325 22 188 4.8 8.0 0.00 0.25 0.00 64 1013.1
20260510172221 22 188 3.2 4.8 0.00 0.25 0.00 65 1013.3
20260510172116 22 185 6.4 12.9 0.00 0.25 0.00 64 1013.4
20260510172028 22 230 4.8 6.4 0.00 0.25 0.00 65 1013.1
20260510171924 22 244 3.2 4.8 0.00 0.25 0.00 64 1013.2
20260510171820 22 194 4.8 9.7 0.00 0.25 0.00 65 1013.3
20260510171715 22 182 4.8 6.4 0.00 0.25 0.00 64 1013.3
20260510171627 22 213 3.2 4.8 0.00 0.25 0.00 67 1013.3
20260510171522 22 251 1.6 3.2 0.00 0.25 0.00 65 1013.3
20260510171438 22 315 0.0 1.6 0.00 0.25 0.00 65 1013.0
20260510171330 22 20 0.0 3.2 0.00 0.25 0.00 66 1013.3
20260510171226 22 59 3.2 4.8 0.00 0.25 0.00 65 1013.3
20260510171141 22 33 3.2 4.8 0.00 0.25 0.00 66 1013.5
20260510171016 22 335 3.2 3.2 0.00 0.25 0.00 66 1013.5
20260510170928 22 241 1.6 4.8 0.00 0.25 0.00 66 1013.4
20260510170824 22 211 3.2 4.8 0.00 0.25 0.00 68 1013.4
20260510170719 22 204 4.8 6.4 0.00 0.25 0.00 66 1013.5
20260510170615 22 225 3.2 6.4 0.00 0.25 0.00 67 1013.5
20260510170527 22 197 3.2 6.4 0.00 0.25 0.00 66 1013.3
20260510170422 22 186 3.2 4.8 0.00 0.25 0.00 68 1013.4
20260510170318 21 76 0.0 3.2 0.00 0.25 0.00 69 1013.4
20260510170230 22 122 1.6 3.2 0.00 0.25 0.00 67 1013.5
20260510170145 22 60 3.2 4.8 0.00 0.25 0.00 67 1013.4
20260510170021 22 51 1.6 3.2 0.00 0.25 0.00 69 1013.4
20260510165917 22 213 1.6 4.8 0.00 0.25 0.00 69 1013.5
20260510165828 22 200 6.4 8.0 0.00 0.25 0.00 69 1013.4
20260510165724 21 239 1.6 3.2 0.00 0.25 0.00 68 1013.5
20260510165620 21 0.0 3.2 0.00 0.25 0.00 69 1013.6
20260510165515 21 151 3.2 4.8 0.00 0.25 0.00 69 1013.6
20260510165427 21 72 0.0 4.8 0.00 0.25 0.00 68 1013.4
20260510165323 21 62 4.8 4.8 0.00 0.25 0.00 69 1013.7
20260510165218 21 118 1.6 4.8 0.00 0.25 0.00 69 1013.5
20260510165150 21 182 1.6 4.8 0.00 0.25 0.00 69 1013.6
20260510165026 21 156 1.6 3.2 0.00 0.25 0.00 70 1013.6
20260510164921 21 189 3.2 3.2 0.00 0.25 0.00 71 1013.7
20260510164817 21 167 1.6 6.4 0.00 0.25 0.00 71 1013.7
20260510164729 20 204 3.2 4.8 0.00 0.25 0.00 72 1013.7
20260510164624 20 216 3.2 4.8 0.00 0.25 0.00 72 1013.5
20260510164520 20 203 3.2 3.2 0.00 0.25 0.00 71 1013.5
20260510164415 20 196 3.2 6.4 0.00 0.25 0.00 72 1013.8
20260510164327 20 176 3.2 4.8 0.00 0.25 0.00 71 1013.6
20260510164223 20 192 6.4 6.4 0.00 0.25 0.00 71 1013.7
20260510164138 20 207 4.8 6.4 0.00 0.25 0.00 72 1013.6
20260510164030 20 201 4.8 9.7 0.00 0.25 0.00 70 1013.7
20260510163926 21 207 8.0 9.7 0.00 0.25 0.00 71 1013.7
20260510163822 21 231 4.8 6.4 0.00 0.25 0.00 73 1013.8
20260510163717 20 0.0 1.6 0.00 0.25 0.00 71 1013.8
20260510163629 20 169 1.6 3.2 0.00 0.25 0.00 72 1013.8
20260510163524 20 206 4.8 8.0 0.00 0.25 0.00 72 1013.7
20260510163420 20 181 6.4 6.4 0.00 0.25 0.00 72 1013.8
20260510163356 20 185 4.8 4.8 0.00 0.25 0.00 73 1013.7
20260510163228 20 155 1.6 3.2 0.00 0.25 0.00 73 1013.7
20260510163123 20 155 1.6 3.2 0.00 0.25 0.00 72 1013.7
20260510163018 20 76 1.6 3.2 0.00 0.25 0.00 71 1013.7
20260510162930 20 7 3.2 4.8 0.00 0.25 0.00 73 1013.7
20260510162826 20 13 3.2 4.8 0.00 0.25 0.00 72 1013.9
20260510162721 20 182 1.6 3.2 0.00 0.25 0.00 74 1013.9
20260510162617 20 175 1.6 3.2 0.00 0.25 0.00 74 1014.1
20260510162529 20 181 3.2 4.8 0.00 0.25 0.00 75 1013.8
20260510162424 20 192 4.8 11.3 0.00 0.25 0.00 75 1013.9
20260510162319 20 76 1.6 4.8 0.00 0.25 0.00 75 1013.8
20260510162216 20 50 1.6 3.2 0.00 0.25 0.00 74 1014.0
20260510162127 20 128 0.0 1.6 0.00 0.25 0.00 75 1013.7
20260510162103 19 203 3.2 4.8 0.00 0.25 0.00 76 1013.9
20260510161918 19 204 4.8 6.4 0.00 0.25 0.00 75 1013.8
20260510161830 19 212 3.2 4.8 0.00 0.25 0.00 75 1013.8
20260510161726 20 195 3.2 6.4 0.00 0.25 0.00 76 1013.8
20260510161621 20 208 4.8 8.0 0.00 0.25 0.00 78 1013.9
20260510161517 19 194 4.8 8.0 0.00 0.25 0.00 78 1014.1
20260510161428 19 144 3.2 3.2 0.00 0.25 0.00 75 1013.9
20260510161324 19 183 3.2 4.8 0.00 0.25 0.00 76 1013.9
20260510161220 19 153 1.6 3.2 0.00 0.25 0.00 78 1014.1
20260510161116 19 187 1.6 4.8 0.00 0.25 0.00 76 1013.9
20260510161027 19 210 4.8 8.0 0.00 0.25 0.00 78 1014.0
20260510160923 19 211 3.2 6.4 0.00 0.25 0.00 77 1014.1
20260510160818 19 282 1.6 3.2 0.00 0.25 0.00 77 1014.0
20260510160730 19 281 4.8 6.4 0.00 0.25 0.00 77 1013.9
20260510160626 19 345 0.0 3.2 0.00 0.25 0.00 79 1014.0
20260510160521 18 176 1.6 4.8 0.00 0.25 0.00 79 1013.9
20260510160417 18 179 3.2 4.8 0.00 0.25 0.00 79 1014.1
20260510160329 18 193 6.4 9.7 0.00 0.25 0.00 79 1014.0
20260510160324 18 212 3.2 9.7 0.00 0.25 0.00 78 1014.0
20260510160120 18 184 4.8 9.7 0.00 0.25 0.00 77 1013.9
20260510160016 18 179 1.6 4.8 0.00 0.25 0.00 79 1014.2
20260510155947 18 180 3.2 4.8 0.00 0.25 0.00 78 1014.3
20260510155823 18 202 4.8 6.4 0.00 0.25 0.00 79 1014.1
20260510155718 18 271 3.2 6.4 0.00 0.25 0.00 79 1014.0
20260510155630 18 228 3.2 8.0 0.00 0.25 0.00 79 1014.1
20260510155526 18 211 6.4 8.0 0.00 0.25 0.00 80 1014.0
20260510155421 18 207 4.8 6.4 0.00 0.25 0.00 80 1014.1
20260510155317 18 214 4.8 8.0 0.00 0.25 0.00 81 1014.1
20260510155229 18 203 1.6 6.4 0.00 0.25 0.00 82 1014.2
20260510155124 18 189 3.2 6.4 0.00 0.25 0.00 81 1014.0
20260510155040 18 34 0.0 6.4 0.00 0.25 0.00 80 1014.2
20260510154915 18 207 3.2 6.4 0.00 0.25 0.00 80 1014.1
20260510154827 18 213 3.2 6.4 0.00 0.25 0.00 81 1014.2
20260510154723 18 167 3.2 4.8 0.00 0.25 0.00 82 1014.1
20260510154618 18 200 3.2 3.2 0.00 0.25 0.00 81 1014.0
20260510154530 18 200 3.2 6.4 0.00 0.25 0.00 81 1014.3
20260510154426 18 180 6.4 8.0 0.00 0.25 0.00 81 1014.2
20260510154321 17 81 1.6 3.2 0.00 0.25 0.00 80 1014.2
20260510154217 17 18 1.6 3.2 0.00 0.25 0.00 80 1014.1
20260510154129 18 308 1.6 3.2 0.00 0.25 0.00 80 1014.1
20260510154024 18 265 1.6 3.2 0.00 0.25 0.00 81 1014.1
20260510153920 18 219 3.2 6.4 0.00 0.25 0.00 82 1014.1
20260510153816 18 165 3.2 3.2 0.00 0.25 0.00 83 1014.1
20260510153727 17 194 3.2 4.8 0.00 0.25 0.00 84 1014.1
20260510153623 17 113 3.2 4.8 0.00 0.25 0.00 84 1014.1
20260510153518 17 158 4.8 6.4 0.00 0.25 0.00 84 1014.4
20260510153430 17 155 3.2 3.2 0.00 0.25 0.00 84 1014.2
20260510153345 17 193 4.8 6.4 0.00 0.25 0.00 84 1014.4
20260510153221 17 147 3.2 6.4 0.00 0.25 0.00 83 1014.4
20260510153137 17 184 4.8 8.0 0.00 0.25 0.00 83 1014.5
20260510153028 17 192 4.8 6.4 0.00 0.25 0.00 84 1014.3
20260510152924 17 185 4.8 6.4 0.00 0.25 0.00 84 1014.4
20260510152820 17 193 4.8 6.4 0.00 0.25 0.00 84 1014.5
20260510152715 17 193 6.4 9.7 0.00 0.25 0.00 84 1014.4
20260510152647 17 166 4.8 6.4 0.00 0.25 0.00 84 1014.3
20260510152523 17 165 3.2 4.8 0.00 0.25 0.00 84 1014.3
20260510152418 17 126 3.2 4.8 0.00 0.25 0.00 84 1014.3
20260510152330 17 154 3.2 4.8 0.00 0.25 0.00 85 1014.3
20260510152245 17 163 1.6 3.2 0.00 0.25 0.00 86 1014.3
20260510152121 16 199 4.8 6.4 0.00 0.25 0.00 85 1014.4
20260510152018 16 154 1.6 3.2 0.00 0.25 0.00 85 1014.3
20260510151928 16 224 1.6 4.8 0.00 0.25 0.00 86 1014.1
20260510151824 16 201 3.2 6.4 0.00 0.25 0.00 86 1014.3
20260510151720 16 192 1.6 4.8 0.00 0.25 0.00 87 1014.0
20260510151615 16 289 1.6 3.2 0.00 0.25 0.00 87 1014.2
20260510151527 16 334 1.6 3.2 0.00 0.25 0.00 87 1014.1
20260510151422 16 286 1.6 3.2 0.00 0.25 0.00 87 1014.1
20260510151318 16 176 0.0 3.2 0.00 0.25 0.00 87 1014.3
20260510151310 16 72 1.6 1.6 0.00 0.25 0.00 86 1014.1
20260510151125 16 346 1.6 4.8 0.00 0.25 0.00 86 1014.0
20260510151041 16 15 3.2 6.4 0.00 0.25 0.00 86 1014.2
20260510150916 16 164 3.2 4.8 0.00 0.25 0.00 86 1014.1
20260510150828 16 189 4.8 6.4 0.00 0.25 0.00 85 1014.2
20260510150724 16 198 4.8 6.4 0.00 0.25 0.00 86 1014.1
20260510150619 16 117 1.6 1.6 0.00 0.25 0.00 86 1014.1
20260510150515 16 0.0 1.6 0.00 0.25 0.00 86 1014.1
20260510150447 16 152 1.6 4.8 0.00 0.25 0.00 87 1014.2
20260510150322 16 152 3.2 4.8 0.00 0.25 0.00 87 1014.2
20260510150218 16 180 1.6 4.8 0.00 0.25 0.00 88 1014.1
20260510150130 16 277 1.6 4.8 0.00 0.25 0.00 88 1014.1
20260510150025 16 326 1.6 3.2 0.00 0.25 0.00 88 1014.2
20260510145941 16 183 3.2 6.4 0.00 0.25 0.00 88 1014.2
20260510145817 16 148 1.6 3.2 0.00 0.25 0.00 89 1014.4
20260510145728 15 128 3.2 3.2 0.00 0.25 0.00 90 1014.2
20260510145624 15 128 0.0 3.2 0.00 0.25 0.00 90 1014.1
20260510145519 15 104 1.6 3.2 0.00 0.25 0.00 90 1014.2
20260510145435 15 63 0.0 1.6 0.00 0.25 0.00 90 1014.3
20260510145327 15 121 1.6 3.2 0.00 0.25 0.00 90 1014.3
20260510145222 15 88 3.2 4.8 0.00 0.25 0.00 90 1014.2
20260510145118 15 84 3.2 4.8 0.00 0.25 0.00 90 1014.3
20260510145050 15 109 3.2 3.2 0.00 0.25 0.00 91 1014.3
20260510144925 15 168 3.2 3.2 0.00 0.25 0.00 91 1014.3
20260510144821 15 188 3.2 4.8 0.00 0.25 0.00 91 1014.4
20260510144716 15 240 1.6 4.8 0.00 0.25 0.00 91 1014.5
20260510144628 15 208 1.6 8.0 0.00 0.25 0.00 91 1014.3
20260510144524 15 190 3.2 8.0 0.00 0.25 0.00 91 1014.3
20260510144420 15 207 1.6 3.2 0.00 0.25 0.00 91 1014.3
20260510144315 15 185 3.2 4.8 0.00 0.25 0.00 92 1014.3
20260510144227 15 191 3.2 4.8 0.00 0.25 0.00 92 1014.3
20260510144142 15 184 3.2 4.8 0.00 0.25 0.00 92 1014.3
20260510144038 15 201 1.6 3.2 0.00 0.25 0.00 92 1014.4
20260510143949 15 155 3.2 4.8 0.00 0.25 0.00 92 1014.4
20260510143825 15 166 3.2 4.8 0.00 0.25 0.00 92 1014.2
20260510143721 15 128 1.6 3.2 0.00 0.25 0.00 93 1014.2
20260510143616 15 220 1.6 3.2 0.00 0.25 0.00 93 1014.4
20260510143528 15 296 0.0 3.2 0.00 0.25 0.00 93 1014.3
20260510143423 15 189 1.6 3.2 0.00 0.25 0.00 93 1014.3
20260510143319 15 0.0 3.2 0.00 0.25 0.00 93 1014.3
20260510143231 15 175 1.6 3.2 0.00 0.25 0.00 93 1014.3
20260510143126 15 195 3.2 6.4 0.00 0.25 0.00 94 1014.3
20260510143022 15 169 1.6 4.8 0.00 0.25 0.00 94 1014.0
20260510142917 14 71 3.2 4.8 0.00 0.25 0.00 94 1014.1
20260510142829 14 67 1.6 3.2 0.00 0.25 0.00 94 1014.1
20260510142725 14 62 1.6 3.2 0.00 0.25 0.00 95 1013.9
20260510142620 14 0.0 1.6 0.00 0.25 0.00 95 1014.0
20260510142516 14 157 1.6 3.2 0.00 0.25 0.00 95 1014.0
20260510142428 14 101 3.2 3.2 0.00 0.25 0.00 95 1014.1
20260510142343 14 87 1.6 3.2 0.00 0.25 0.00 95 1014.1
20260510142259 13 0.0 3.2 0.00 0.25 0.00 95 1014.0
20260510142131 13 125 1.6 3.2 0.00 0.25 0.00 95 1014.1
20260510142046 13 197 1.6 3.2 0.00 0.25 0.00 95 1014.1
20260510141922 13 125 1.6 4.8 0.00 0.25 0.00 96 1014.0
20260510141837 13 193 1.6 4.8 0.00 0.25 0.00 96 1014.1
20260510141749 13 189 3.2 3.2 0.00 0.25 0.00 96 1014.1
20260510141625 13 188 3.2 6.4 0.00 0.25 0.00 96 1014.1
20260510141520 13 142 1.6 3.2 0.00 0.25 0.00 96 1014.4
20260510141416 13 181 3.2 6.4 0.00 0.25 0.00 96 1014.2
20260510141328 13 192 4.8 8.0 0.00 0.25 0.00 97 1014.2
20260510141243 13 188 4.8 6.4 0.00 0.25 0.00 97 1014.0
20260510141120 13 176 3.2 3.2 0.00 0.25 0.00 97 1014.1
20260510141031 13 172 4.8 6.4 0.00 0.25 0.00 97 1014.1
20260510140926 13 213 1.6 4.8 0.00 0.25 0.00 98 1014.3
20260510140822 13 0.0 1.6 0.00 0.25 0.00 98 1014.2
20260510140718 13 209 1.6 3.2 0.00 0.25 0.00 98 1014.3
20260510140650 13 210 1.6 3.2 0.00 0.25 0.00 98 1014.3
20260510140525 13 275 0.0 3.2 0.00 0.25 0.00 98 1014.0
20260510140440 13 0.0 1.6 0.00 0.25 0.00 98 1014.1
20260510140316 13 94 1.6 3.2 0.00 0.25 0.00 98 1014.1
20260510140228 13 189 1.6 4.8 0.00 0.25 0.00 98 1014.0
20260510140123 13 164 0.0 3.2 0.00 0.25 0.00 99 1014.0
20260510140019 13 136 1.6 3.2 0.00 0.25 0.00 99 1014.0
20260510135931 13 141 1.6 3.2 0.00 0.25 0.00 99 1014.0
20260510135826 13 186 0.0 3.2 0.00 0.25 0.00 99 1014.1
20260510135722 13 143 1.6 3.2 0.00 0.25 0.00 99 1014.1
20260510135618 13 155 1.6 3.2 0.00 0.25 0.00 99 1013.9
20260510135529 13 148 3.2 4.8 0.00 0.25 0.00 99 1014.0
20260510135425 13 178 3.2 4.8 0.00 0.25 0.00 99 1013.9
20260510135320 13 172 3.2 3.2 0.00 0.25 0.00 99 1014.0
20260510135216 13 157 1.6 3.2 0.00 0.25 0.00 99 1014.0
20260510135128 13 176 1.6 3.2 0.00 0.25 0.00 99 1013.9
20260510135043 13 153 1.6 3.2 0.00 0.25 0.00 99 1013.9
20260510134919 13 208 1.6 3.2 0.00 0.25 0.00 99 1014.0
20260510134831 13 157 1.6 4.8 0.00 0.25 0.00 99 1014.0
20260510134726 13 181 4.8 6.4 0.00 0.25 0.00 99 1013.8
20260510134622 13 158 1.6 3.2 0.00 0.25 0.00 99 1014.1
20260510134557 13 144 1.6 3.2 0.00 0.25 0.00 99 1014.1
20260510134429 13 157 1.6 3.2 0.00 0.25 0.00 99 1014.0
20260510134325 12 0.0 1.6 0.00 0.25 0.00 99 1014.0
20260510134220 12 0.0 3.2 0.00 0.25 0.00 99 1014.2
20260510134136 12 158 3.2 3.2 0.00 0.25 0.00 99 1014.3
20260510134027 12 154 3.2 3.2 0.00 0.25 0.00 99 1014.1
20260510133923 12 148 1.6 3.2 0.00 0.25 0.00 99 1014.1
20260510133818 12 292 0.0 3.2 0.00 0.25 0.00 99 1014.0
20260510133750 12 207 1.6 3.2 0.00 0.25 0.00 99 1014.2
20260510133626 12 125 1.6 3.2 0.00 0.25 0.00 99 1014.1
20260510133542 12 114 1.6 3.2 0.00 0.25 0.00 99 1014.0
20260510133417 12 166 3.2 4.8 0.00 0.25 0.00 99 1014.1
20260510133349 12 172 3.2 6.4 0.00 0.25 0.00 99 1014.2
20260510133224 12 183 3.2 6.4 0.00 0.25 0.00 99 1014.2
20260510133120 12 181 3.2 4.8 0.00 0.25 0.00 99 1014.3
20260510133015 12 178 3.2 3.2 0.00 0.25 0.00 99 1014.3
20260510132927 12 167 3.2 4.8 0.00 0.25 0.00 99 1014.3
20260510132822 12 134 1.6 4.8 0.00 0.25 0.00 99 1014.2
20260510132718 12 188 4.8 4.8 0.00 0.25 0.00 99 1014.3
20260510132630 12 175 3.2 4.8 0.00 0.25 0.00 99 1014.3
20260510132526 12 124 3.2 3.2 0.00 0.25 0.00 99 1014.1
20260510132421 12 151 1.6 3.2 0.00 0.25 0.00 99 1014.0
20260510132317 12 140 1.6 3.2 0.00 0.25 0.00 99 1014.1
20260510132229 12 189 1.6 3.2 0.00 0.25 0.00 99 1014.1
20260510132124 12 198 3.2 4.8 0.00 0.25 0.00 99 1014.1
20260510132040 12 207 1.6 4.8 0.00 0.25 0.00 99 1014.0
20260510131915 12 89 1.6 3.2 0.00 0.25 0.00 99 1013.9
20260510131827 12 66 0.0 3.2 0.00 0.25 0.00 99 1014.1
20260510131723 12 326 1.6 3.2 0.00 0.25 0.00 99 1014.0
20260510131639 12 161 1.6 3.2 0.00 0.25 0.00 99 1013.9
20260510131530 12 179 3.2 4.8 0.00 0.25 0.00 99 1013.9
20260510131426 12 0.0 1.6 0.00 0.25 0.00 99 1014.0
20260510131321 12 209 1.6 3.2 0.00 0.25 0.00 99 1014.0
20260510131217 12 246 1.6 3.2 0.00 0.25 0.00 99 1014.0
20260510131129 12 164 1.6 3.2 0.00 0.25 0.00 99 1013.9
20260510131024 12 203 1.6 3.2 0.00 0.25 0.00 99 1013.9
20260510130920 12 254 0.0 3.2 0.00 0.25 0.00 99 1013.7
20260510130836 12 132 3.2 3.2 0.00 0.25 0.00 99 1013.8
20260510130727 12 193 3.2 6.4 0.00 0.25 0.00 99 1013.9
20260510130623 12 176 4.8 6.4 0.00 0.25 0.00 99 1013.8
20260510130519 12 174 4.8 6.4 0.00 0.25 0.00 99 1014.0
20260510130430 12 166 3.2 4.8 0.00 0.25 0.00 99 1014.0
20260510130326 12 200 1.6 4.8 0.00 0.25 0.00 99 1013.9
20260510130222 12 186 1.6 3.2 0.00 0.25 0.00 99 1013.9
20260510130117 12 180 1.6 3.2 0.00 0.25 0.00 99 1013.7
20260510130029 12 28 1.6 3.2 0.00 0.25 0.00 99 1013.7
20260510125925 12 108 3.2 4.8 0.00 0.25 0.00 99 1013.6
20260510125820 12 140 3.2 4.8 0.00 0.25 0.00 99 1013.7
20260510125716 12 184 3.2 6.4 0.00 0.25 0.00 99 1013.7
20260510125628 12 179 3.2 4.8 0.00 0.25 0.00 99 1013.6
20260510125523 12 157 1.6 3.2 0.00 0.25 0.00 99 1013.7
20260510125419 12 164 1.6 4.8 0.00 0.25 0.00 99 1013.7
20260510125330 12 138 1.6 3.2 0.00 0.25 0.00 99 1013.7
20260510125226 12 114 1.6 3.2 0.00 0.25 0.00 99 1013.7
20260510125122 12 127 1.6 3.2 0.00 0.25 0.00 99 1013.8
20260510125057 12 136 1.6 3.2 0.00 0.25 0.00 99 1013.7
20260510124929 12 146 0.0 3.2 0.00 0.25 0.00 99 1013.9
20260510124845 12 173 1.6 3.2 0.00 0.25 0.00 99 1013.6
20260510124820 12 149 1.6 1.6 0.00 0.25 0.00 99 1013.6
20260510124656 12 339 0.0 1.6 0.00 0.25 0.00 99 1013.6
20260510124528 12 174 1.6 3.2 0.00 0.25 0.00 99 1013.5
20260510124503 12 247 3.2 4.8 0.00 0.25 0.00 99 1013.6
20260510124319 12 92 3.2 3.2 0.00 0.28 0.00 99 1013.5
20260510124231 12 122 0.0 3.2 0.00 0.28 0.00 99 1013.5
20260510124126 12 0.0 3.2 0.00 0.28 0.00 99 1013.4
20260510124042 12 322 0.0 3.2 0.00 0.28 0.00 99 1013.7
20260510123918 12 237 1.6 1.6 0.00 0.28 0.00 99 1013.4
20260510123829 12 159 1.6 4.8 0.00 0.28 0.00 99 1013.6
20260510123725 12 196 1.6 3.2 0.00 0.28 0.00 99 1013.5
20260510123621 12 154 0.0 3.2 0.00 0.28 0.00 99 1013.5
20260510123516 12 218 1.6 4.8 0.00 0.28 0.00 99 1013.5
20260510123428 12 140 1.6 3.2 0.00 0.28 0.00 99 1013.4
20260510123324 12 193 1.6 3.2 0.00 0.28 0.00 99 1013.5
20260510123219 12 232 3.2 3.2 0.00 0.28 0.00 99 1013.4
20260510123115 12 180 3.2 4.8 0.00 0.28 0.00 99 1013.5
20260510123027 12 206 3.2 4.8 0.00 0.28 0.00 99 1013.5
20260510122942 12 171 1.6 4.8 0.00 0.28 0.00 99 1013.4
20260510122818 12 171 1.6 3.2 0.00 0.28 0.00 99 1013.4
20260510122729 12 161 3.2 4.8 0.00 0.28 0.00 99 1013.4
20260510122625 12 160 1.6 3.2 0.00 0.28 0.00 99 1013.2
20260510122541 12 73 0.0 3.2 0.00 0.28 0.00 99 1013.4
20260510122417 12 162 1.6 3.2 0.00 0.28 0.00 99 1013.4
20260510122328 12 167 1.6 4.8 0.00 0.28 0.00 99 1013.4
20260510122244 12 112 3.2 4.8 0.00 0.28 0.00 99 1013.3
20260510122119 12 65 1.6 3.2 0.00 0.28 0.00 99 1013.3
20260510122031 12 70 3.2 4.8 0.00 0.28 0.00 99 1013.4
20260510121927 12 82 3.2 4.8 0.00 0.28 0.00 99 1013.3
20260510121822 12 98 1.6 3.2 0.00 0.28 0.00 99 1013.5
20260510121718 12 93 1.6 4.8 0.00 0.28 0.00 99 1013.4
20260510121650 12 81 1.6 3.2 0.00 0.28 0.00 99 1013.4
20260510121545 12 0.0 1.6 0.00 0.28 0.00 99 1013.3
20260510121421 12 0.0 1.6 0.00 0.28 0.00 99 1013.3
20260510121317 12 163 0.0 3.2 0.00 0.28 0.00 99 1013.4
20260510121228 12 175 0.0 3.2 0.00 0.28 0.00 99 1013.3
20260510121124 12 116 1.6 3.2 0.00 0.28 0.00 99 1013.4
20260510121020 11 126 0.0 1.6 0.00 0.28 0.00 99 1013.3
20260510120915 11 156 1.6 3.2 0.00 0.28 0.00 99 1013.3
20260510120827 11 143 3.2 3.2 0.00 0.28 0.00 99 1013.2
20260510120722 12 164 3.2 4.8 0.00 0.28 0.00 99 1013.2
20260510120618 12 164 3.2 4.8 0.00 0.28 0.00 99 1013.3
20260510120530 12 154 1.6 3.2 0.00 0.28 0.00 99 1013.3
20260510120425 12 112 3.2 4.8 0.00 0.28 0.00 99 1013.3
20260510120321 12 203 1.6 3.2 0.00 0.28 0.00 99 1013.0
20260510120216 12 177 1.6 3.2 0.00 0.28 0.00 99 1013.3
20260510120128 12 148 1.6 3.2 0.00 0.28 0.00 99 1013.2
20260510120024 12 130 1.6 3.2 0.00 0.28 0.00 99 1013.3
20260510115919 12 132 1.6 3.2 0.00 0.28 0.00 99 1013.2
20260510115815 12 133 1.6 3.2 0.00 0.28 0.00 99 1013.2
20260510115727 11 114 1.6 3.2 0.00 0.28 0.00 99 1013.2
20260510115642 11 129 1.6 3.2 0.00 0.28 0.00 99 1013.3
20260510115518 11 152 1.6 3.2 0.00 0.28 0.00 99 1013.2
20260510115510 11 147 3.2 4.8 0.00 0.28 0.00 99 1013.2
20260510115325 11 144 3.2 4.8 0.00 0.28 0.00 99 1013.5
20260510115221 11 138 3.2 4.8 0.00 0.28 0.00 99 1013.2
20260510115136 12 156 3.2 4.8 0.00 0.28 0.00 99 1013.4
20260510115028 12 168 0.0 3.2 0.00 0.28 0.00 99 1013.1
20260510114924 12 178 1.6 1.6 0.00 0.28 0.00 99 1013.4
20260510114819 12 144 1.6 4.8 0.00 0.28 0.00 99 1013.2
20260510114715 12 156 1.6 3.2 0.00 0.28 0.00 99 1013.2
20260510114627 12 135 0.0 3.2 0.00 0.28 0.00 99 1013.2
20260510114523 11 135 1.6 3.2 0.00 0.28 0.00 99 1013.2
20260510114418 11 96 1.6 3.2 0.00 0.28 0.00 99 1013.2
20260510114330 11 131 1.6 3.2 0.00 0.28 0.00 99 1013.2
20260510114226 11 343 1.6 3.2 0.00 0.28 0.00 99 1013.1
20260510114121 11 153 1.6 3.2 0.00 0.28 0.00 99 1013.3
20260510114017 11 171 0.0 3.2 0.00 0.28 0.00 99 1013.3
20260510113929 11 168 3.2 4.8 0.00 0.28 0.00 99 1013.1
20260510113824 11 180 3.2 3.2 0.00 0.28 0.00 99 1013.1
20260510113720 11 181 1.6 3.2 0.00 0.28 0.00 99 1013.2
20260510113615 11 167 1.6 4.8 0.00 0.28 0.00 99 1013.2
20260510113527 11 167 3.2 3.2 0.00 0.28 0.00 99 1013.3
20260510113423 11 150 3.2 3.2 0.00 0.28 0.00 99 1013.2
20260510113319 11 153 1.6 3.2 0.00 0.28 0.00 99 1013.3
20260510113230 11 141 3.2 3.2 0.00 0.28 0.00 99 1013.3
20260510113126 11 140 3.2 3.2 0.00 0.28 0.00 99 1013.1
20260510113021 11 120 1.6 3.2 0.00 0.28 0.00 99 1013.2
20260510112917 11 98 1.6 1.6 0.00 0.28 0.00 99 1013.1
20260510112849 11 121 0.0 3.2 0.00 0.28 0.00 99 1013.4
20260510112725 11 16 0.0 1.6 0.00 0.28 0.00 99 1013.3
20260510112620 11 15 1.6 3.2 0.00 0.28 0.00 99 1013.0
20260510112516 11 0.0 1.6 0.00 0.28 0.00 99 1013.2
20260510112447 11 0.0 1.6 0.00 0.28 0.00 99 1013.3
20260510112343 11 0.0 1.6 0.00 0.28 0.00 99 1013.2
20260510112239 11 128 1.6 1.6 0.00 0.28 0.00 99 1013.2
20260510112130 11 0.0 3.2 0.00 0.28 0.00 99 1013.2
20260510112026 11 171 3.2 3.2 0.00 0.28 0.00 99 1013.0
20260510112022 11 152 1.6 3.2 0.00 0.28 0.00 99 1013.1
20260510111817 11 87 1.6 3.2 0.00 0.28 0.00 99 1013.2
20260510111729 11 65 0.0 3.2 0.00 0.28 0.00 99 1013.2
20260510111625 11 35 1.6 3.2 0.00 0.28 0.00 99 1013.1
20260510111540 11 14 1.6 3.2 0.00 0.28 0.00 99 1013.0
20260510111436 11 0.0 1.6 0.00 0.28 0.00 99 1012.9
20260510111348 11 357 0.0 1.6 0.00 0.28 0.00 99 1012.9
20260510111239 11 170 0.0 1.6 0.00 0.28 0.00 99 1012.8
20260510111031 11 59 0.0 1.6 0.00 0.28 0.00 99 1012.8
20260510110926 11 0.0 1.6 0.00 0.28 0.00 99 1012.7
20260510110822 11 161 1.6 4.8 0.00 0.28 0.00 99 1012.8
20260510110718 11 170 3.2 3.2 0.00 0.28 0.00 99 1012.8
20260510110629 11 133 1.6 3.2 0.00 0.28 0.00 99 1012.7
20260510110525 11 135 1.6 3.2 0.00 0.28 0.00 99 1012.6
20260510110420 11 153 1.6 3.2 0.00 0.28 0.00 99 1012.5
20260510110336 11 241 0.0 1.6 0.00 0.28 0.00 99 1012.7
20260510110228 11 121 0.0 3.2 0.00 0.28 0.00 99 1012.5
20260510110123 11 124 1.6 3.2 0.00 0.28 0.00 99 1012.4
20260510110019 11 82 1.6 3.2 0.00 0.28 0.00 99 1012.5
20260510105931 11 107 3.2 6.4 0.00 0.28 0.00 99 1012.7
20260510105826 11 136 3.2 6.4 0.00 0.28 0.00 99 1012.6
20260510105722 11 125 3.2 4.8 0.00 0.28 0.00 99 1012.5
20260510105617 11 127 1.6 3.2 0.00 0.28 0.00 99 1012.5
20260510105529 11 137 0.0 3.2 0.00 0.28 0.00 99 1012.6
20260510105425 11 103 1.6 3.2 0.00 0.28 0.00 99 1012.3
20260510105320 11 91 1.6 3.2 0.00 0.28 0.00 99 1012.3
20260510105216 11 0.0 3.2 0.00 0.28 0.00 99 1012.4
20260510105127 11 118 1.6 3.2 0.00 0.28 0.00 99 1012.4
20260510105023 11 127 3.2 4.8 0.00 0.28 0.00 99 1012.2
20260510104939 11 110 3.2 3.2 0.00 0.28 0.00 99 1012.3
20260510104831 11 115 3.2 4.8 0.00 0.28 0.00 99 1012.5
20260510104726 11 102 1.6 3.2 0.00 0.28 0.00 99 1012.5
20260510104642 11 109 0.0 3.2 0.00 0.28 0.00 99 1012.5
20260510104538 11 109 1.6 3.2 0.00 0.28 0.00 99 1012.6
20260510104429 11 161 0.0 3.2 0.00 0.28 0.00 99 1012.5
20260510104325 11 160 1.6 3.2 0.00 0.28 0.00 99 1012.4
20260510104220 11 155 0.0 3.2 0.00 0.28 0.00 99 1012.5
20260510104116 11 123 1.6 3.2 0.00 0.28 0.00 99 1012.4
20260510104048 11 123 0.0 3.2 0.00 0.28 0.00 99 1012.7
20260510103943 11 149 0.0 3.2 0.00 0.28 0.00 99 1012.6
20260510103819 11 143 1.6 3.2 0.00 0.28 0.00 99 1012.4
20260510103731 11 67 1.6 3.2 0.00 0.28 0.00 99 1012.3
20260510103626 11 126 0.0 3.2 0.00 0.28 0.00 99 1012.2
20260510103542 11 96 0.0 3.2 0.00 0.28 0.00 99 1012.6
20260510103437 11 106 0.0 1.6 0.00 0.28 0.00 99 1012.6
20260510103349 11 130 0.0 3.2 0.00 0.28 0.00 99 1012.5
20260510103225 11 0.0 3.2 0.00 0.28 0.00 99 1012.5
20260510103121 11 0.0 3.2 0.00 0.28 0.00 99 1012.6
20260510103056 11 129 0.0 3.2 0.00 0.28 0.00 99 1012.5
20260510102948 11 0.0 1.6 0.00 0.28 0.00 99 1012.6
20260510102824 11 294 0.0 3.2 0.00 0.28 0.00 99 1012.6
20260510102719 11 0.0 3.2 0.00 0.28 0.00 99 1012.6
20260510102631 11 0.0 3.2 0.00 0.28 0.00 99 1012.5
20260510102547 11 121 0.0 3.2 0.00 0.28 0.00 99 1012.5
20260510102422 11 106 1.6 3.2 0.00 0.28 0.00 99 1012.5
20260510102318 11 82 0.0 3.2 0.00 0.28 0.00 99 1012.6
20260510102230 11 108 1.6 4.8 0.00 0.28 0.00 99 1012.5
20260510102125 11 88 3.2 3.2 0.00 0.28 0.00 99 1012.5
20260510102021 11 115 1.6 3.2 0.00 0.28 0.00 99 1012.8
20260510101916 11 95 1.6 3.2 0.00 0.28 0.00 99 1012.6
20260510101848 11 0.0 3.2 0.00 0.28 0.00 99 1012.7
20260510101724 11 89 1.6 3.2 0.00 0.28 0.00 99 1012.6
20260510101619 11 131 1.6 3.2 0.00 0.28 0.00 99 1012.6
20260510101535 11 115 1.6 3.2 0.00 0.28 0.00 99 1012.5
20260510101447 11 98 3.2 4.8 0.00 0.28 0.00 99 1012.5
20260510101322 11 112 3.2 4.8 0.00 0.28 0.00 99 1012.5
20260510101218 11 111 3.2 3.2 0.00 0.28 0.00 99 1012.5
20260510101130 11 117 1.6 3.2 0.00 0.28 0.00 99 1012.5
20260510101026 11 82 0.0 3.2 0.00 0.28 0.00 99 1012.6
20260510100921 11 146 1.6 3.2 0.00 0.28 0.00 99 1012.7
20260510100837 11 88 0.0 3.2 0.00 0.28 0.00 99 1012.6
20260510100728 11 178 1.6 3.2 0.00 0.28 0.00 99 1012.7
20260510100624 11 0.0 3.2 0.00 0.28 0.00 99 1012.5
20260510100519 11 0.0 3.2 0.00 0.28 0.00 99 1012.6
20260510100415 11 171 0.0 1.6 0.00 0.28 0.00 99 1012.7
20260510100327 11 22 1.6 3.2 0.00 0.28 0.00 99 1012.4
20260510100222 11 0 0.0 3.2 0.00 0.28 0.00 99 1012.4
20260510100118 11 44 0.0 1.6 0.00 0.28 0.00 99 1012.3
20260510100030 11 0.0 3.2 0.00 0.28 0.00 99 1012.4
20260510095925 11 95 0.0 3.2 0.00 0.28 0.00 99 1012.5
20260510095821 11 58 1.6 1.6 0.00 0.28 0.00 99 1012.5
20260510095717 11 0.0 3.2 0.00 0.28 0.00 99 1012.5
20260510095628 11 35 1.6 3.2 0.00 0.28 0.00 99 1012.4
20260510095524 11 53 0.0 3.2 0.00 0.28 0.00 99 1012.4
20260510095420 11 10 0.0 3.2 0.00 0.28 0.00 99 1012.6
20260510095315 11 104 0.0 1.6 0.00 0.28 0.00 99 1012.5
20260510095227 11 106 1.6 1.6 0.00 0.28 0.00 99 1012.6
20260510095122 11 113 1.6 3.2 0.00 0.28 0.00 99 1012.6
20260510095018 11 125 0.0 3.2 0.00 0.28 0.00 99 1012.5
20260510094930 11 133 1.6 3.2 0.00 0.28 0.00 99 1012.5
20260510094825 11 0.0 3.2 0.00 0.28 0.00 99 1012.4
20260510094721 11 122 0.0 1.6 0.00 0.28 0.00 99 1012.5
20260510094617 11 98 3.2 3.2 0.00 0.28 0.00 99 1012.6
20260510094528 11 0.0 3.2 0.00 0.28 0.00 99 1012.5
20260510094424 11 92 1.6 3.2 0.00 0.28 0.00 99 1012.6
20260510094320 11 66 1.6 3.2 0.00 0.28 0.00 99 1012.5
20260510094216 11 79 3.2 4.8 0.00 0.28 0.00 99 1012.7
20260510094127 11 84 1.6 3.2 0.00 0.28 0.00 99 1012.6
20260510094023 11 110 0.0 3.2 0.00 0.28 0.00 99 1012.6
20260510093919 11 0.0 3.2 0.00 0.28 0.00 99 1012.6
20260510093910 11 100 0.0 3.2 0.00 0.28 0.00 99 1012.5
20260510093726 11 288 0.0 1.6 0.00 0.28 0.00 99 1012.6
20260510093621 11 69 1.6 3.2 0.00 0.28 0.00 99 1012.6
20260510093517 11 65 1.6 3.2 0.00 0.28 0.00 99 1012.5
20260510093429 11 85 1.6 3.2 0.00 0.28 0.00 99 1012.7
20260510093324 11 94 1.6 4.8 0.00 0.28 0.00 99 1012.6
20260510093220 11 57 0.0 4.8 0.00 0.28 0.00 99 1012.8
20260510093115 11 67 1.6 4.8 0.00 0.28 0.00 99 1012.7
20260510093027 11 41 1.6 4.8 0.00 0.28 0.00 99 1012.7
20260510092943 11 17 1.6 3.2 0.00 0.28 0.00 99 1012.6
20260510092839 11 0.0 3.2 0.00 0.28 0.00 99 1012.8
20260510092730 11 328 0.0 3.2 0.00 0.28 0.00 99 1012.7
20260510092626 11 76 3.2 4.8 0.00 0.28 0.00 99 1012.9
20260510092522 11 66 1.6 4.8 0.00 0.28 0.00 99 1012.8
20260510092417 11 86 1.6 3.2 0.00 0.28 0.00 99 1012.8
20260510092329 11 86 3.2 3.2 0.00 0.28 0.00 99 1012.8
20260510092224 11 89 1.6 3.2 0.00 0.28 0.00 99 1012.8
20260510092120 11 121 1.6 3.2 0.00 0.28 0.00 99 1012.9
20260510092016 11 148 1.6 3.2 0.00 0.28 0.00 99 1012.7
20260510091927 11 0.0 3.2 0.00 0.28 0.00 99 1012.8
20260510091823 11 0.0 3.2 0.00 0.28 0.00 99 1012.9
20260510091719 11 78 1.6 4.8 0.00 0.28 0.00 99 1012.8
20260510091630 11 72 1.6 3.2 0.00 0.28 0.00 99 1012.7
20260510091526 11 299 0.0 3.2 0.00 0.28 0.00 99 1012.9
20260510091442 11 62 3.2 4.8 0.00 0.28 0.00 99 1012.7
20260510091317 11 107 3.2 3.2 0.00 0.28 0.00 99 1013.0
20260510091229 11 54 1.6 3.2 0.00 0.28 0.00 99 1012.9
20260510091125 11 0.0 3.2 0.00 0.28 0.00 99 1013.1
20260510091040 11 43 1.6 3.2 0.00 0.28 0.00 99 1012.9
20260510090916 11 182 0.0 3.2 0.00 0.28 0.00 99 1013.0
20260510090828 11 89 1.6 3.2 0.00 0.28 0.00 99 1013.2
20260510090743 11 76 3.2 4.8 0.00 0.28 0.00 99 1013.0
20260510090619 11 84 1.6 3.2 0.00 0.28 0.00 99 1013.1
20260510090531 11 0.0 3.2 0.00 0.28 0.00 99 1013.1
20260510090426 11 121 1.6 3.2 0.00 0.28 0.00 99 1013.0
20260510090322 11 120 1.6 3.2 0.00 0.28 0.00 99 1012.9
20260510090217 11 47 0.0 3.2 0.00 0.28 0.00 99 1013.0
20260510090129 11 49 0.0 3.2 0.00 0.28 0.00 99 1012.9
20260510090045 11 23 1.6 4.8 0.00 0.28 0.00 99 1012.9
20260510085920 11 72 1.6 3.2 0.00 0.28 0.00 99 1012.9
20260510085816 11 36 1.6 3.2 0.00 0.28 0.00 99 1012.9
20260510085748 10 5 1.6 3.2 0.00 0.28 0.00 99 1013.0
20260510085623 10 0.0 3.2 0.00 0.28 0.00 99 1012.9
20260510085519 10 64 1.6 3.2 0.00 0.28 0.00 99 1012.9
20260510085431 10 116 0.0 3.2 0.00 0.28 0.00 99 1013.0
20260510085327 10 106 3.2 4.8 0.00 0.28 0.00 99 1013.0
20260510085222 10 65 1.6 3.2 0.00 0.28 0.00 99 1013.0
20260510085158 10 113 1.6 3.2 0.00 0.28 0.00 99 1013.0
20260510085029 10 132 0.0 3.2 0.00 0.28 0.00 99 1013.0
20260510084925 10 121 1.6 3.2 0.00 0.28 0.00 99 1012.8
20260510084821 10 27 1.6 3.2 0.00 0.28 0.00 99 1012.9
20260510084736 10 196 1.6 3.2 0.00 0.28 0.00 99 1012.9
20260510084628 10 44 1.6 3.2 0.00 0.28 0.00 99 1012.7
20260510084524 10 13 1.6 6.4 0.00 0.28 0.00 99 1012.9
20260510084419 10 356 1.6 6.4 0.00 0.28 0.00 99 1012.9
20260510084315 10 33 1.6 3.2 0.00 0.28 0.00 99 1013.0
20260510084227 10 21 3.2 4.8 0.00 0.28 0.00 99 1013.0
20260510084122 10 359 3.2 4.8 0.00 0.28 0.00 99 1013.0
20260510084018 10 19 3.2 4.8 0.00 0.28 0.00 99 1013.1
20260510083930 10 13 3.2 4.8 0.00 0.28 0.00 99 1013.0
20260510083825 10 66 1.6 3.2 0.00 0.28 0.00 99 1012.7
20260510083721 10 127 3.2 4.8 0.00 0.28 0.00 99 1012.6
20260510083617 10 134 3.2 6.4 0.00 0.28 0.00 99 1012.8
20260510083529 10 124 3.2 4.8 0.00 0.28 0.00 99 1012.7
20260510083444 10 193 1.6 3.2 0.00 0.28 0.00 99 1012.6
20260510083320 10 44 0.0 3.2 0.00 0.28 0.00 99 1012.9
20260510083216 11 350 3.2 4.8 0.00 0.28 0.00 99 1012.8
20260510083127 11 169 3.2 4.8 0.00 0.28 0.00 99 1012.8
20260510083023 11 357 1.6 4.8 0.00 0.28 0.00 99 1012.6
20260510082918 11 350 1.6 3.2 0.00 0.28 0.00 99 1012.5
20260510082830 10 346 1.6 3.2 0.00 0.28 0.00 99 1012.5
20260510082726 10 358 1.6 3.2 0.00 0.28 0.00 99 1012.5
20260510082622 10 356 1.6 1.6 0.00 0.28 0.00 99 1012.3
20260510082517 10 0.0 3.2 0.00 0.28 0.00 99 1012.5
20260510082429 10 78 1.6 3.2 0.00 0.28 0.00 99 1012.3
20260510082325 10 115 0.0 1.6 0.00 0.28 0.00 99 1012.4
20260510082220 10 61 0.0 1.6 0.00 0.28 0.00 99 1012.3
20260510082116 10 0.0 0.0 0.00 0.28 0.00 99 1012.4
20260510082028 10 130 0.0 1.6 0.00 0.28 0.00 99 1012.3
20260510081923 10 161 1.6 3.2 0.00 0.28 0.00 99 1012.3
20260510081819 10 170 1.6 3.2 0.00 0.28 0.00 99 1012.3
20260510081730 10 148 1.6 3.2 0.00 0.28 0.00 99 1012.3
20260510081626 10 124 1.6 3.2 0.00 0.28 0.00 99 1012.3
20260510081522 10 116 1.6 4.8 0.00 0.28 0.00 99 1012.2
20260510081417 10 98 1.6 3.2 0.00 0.28 0.00 99 1012.3
20260510081329 10 100 1.6 3.2 0.00 0.28 0.00 99 1012.0
20260510081224 10 0.0 1.6 0.00 0.28 0.00 99 1012.2
20260510081120 10 95 0.0 1.6 0.00 0.28 0.00 99 1012.2
20260510081016 10 0.0 1.6 0.00 0.28 0.00 99 1012.4
20260510080948 10 107 0.0 1.6 0.00 0.28 0.00 99 1012.3
20260510080823 10 0.0 1.6 0.00 0.28 0.00 99 1012.3
20260510080719 10 0.0 3.2 0.00 0.28 0.00 99 1012.1
20260510080631 10 108 0.0 3.2 0.00 0.28 0.00 99 1012.1
20260510080526 10 101 1.6 3.2 0.00 0.28 0.00 99 1012.2
20260510080442 10 119 1.6 3.2 0.00 0.28 0.00 99 1012.1
20260510080317 10 127 1.6 3.2 0.00 0.28 0.00 99 1012.3
20260510080229 10 144 1.6 3.2 0.00 0.28 0.00 99 1012.1
20260510080125 10 135 0.0 3.2 0.00 0.28 0.00 99 1012.0
20260510080020 10 81 0.0 3.2 0.00 0.28 0.00 99 1012.1
20260510075936 10 51 0.0 3.2 0.00 0.28 0.00 99 1012.1
20260510075829 10 110 0.0 3.2 0.00 0.28 0.00 99 1011.9
20260510075724 10 0.0 3.2 0.00 0.28 0.00 99 1012.1
20260510075639 10 71 1.6 3.2 0.00 0.28 0.00 99 1012.2
20260510075531 10 63 1.6 3.2 0.00 0.28 0.00 99 1012.1
20260510075427 10 86 1.6 3.2 0.00 0.28 0.00 99 1012.2
20260510075322 10 122 0.0 3.2 0.00 0.28 0.00 99 1012.0
20260510075218 10 0.0 3.2 0.00 0.28 0.00 99 1012.1
20260510075130 10 50 1.6 3.2 0.00 0.28 0.00 99 1012.0
20260510075025 10 80 1.6 1.6 0.00 0.28 0.00 99 1012.0
20260510074921 10 97 0.0 1.6 0.00 0.28 0.00 99 1012.1
20260510074816 10 32 0.0 3.2 0.00 0.28 0.00 99 1012.0
20260510074728 10 156 1.6 3.2 0.00 0.28 0.00 99 1012.1
20260510074624 10 100 1.6 1.6 0.00 0.28 0.00 99 1012.0
20260510074520 10 0.0 1.6 0.00 0.28 0.00 99 1011.9
20260510074415 10 138 1.6 3.2 0.00 0.28 0.00 99 1011.9
20260510074327 10 0.0 3.2 0.00 0.28 0.00 99 1012.0
20260510074222 10 0.0 0.0 0.00 0.28 0.00 99 1012.0
20260510074118 10 131 0.0 3.2 0.00 0.28 0.00 99 1012.0
20260510074030 10 0.0 1.6 0.00 0.28 0.00 99 1011.9
20260510073925 10 315 0.0 3.2 0.00 0.28 0.00 99 1012.1
20260510073821 10 14 1.6 3.2 0.00 0.28 0.00 99 1012.0
20260510073716 10 7 0.0 3.2 0.00 0.28 0.00 99 1011.9
20260510073628 10 14 3.2 3.2 0.00 0.28 0.00 99 1011.9
20260510073524 10 82 1.6 3.2 0.00 0.28 0.00 99 1011.9
20260510073420 10 59 1.6 3.2 0.00 0.28 0.00 99 1012.1
20260510073315 10 101 3.2 3.2 0.00 0.28 0.00 99 1012.0
20260510073227 10 39 1.6 3.2 0.00 0.28 0.00 99 1011.9
20260510073142 10 120 1.6 3.2 0.00 0.28 0.00 99 1012.0
20260510073018 10 44 0.0 3.2 0.00 0.28 0.00 99 1011.9
20260510072930 10 116 0.0 3.2 0.00 0.28 0.00 99 1011.9
20260510072906 10 187 1.6 3.2 0.00 0.28 0.00 99 1011.9
20260510072721 10 0.0 3.2 0.00 0.28 0.00 99 1011.9
20260510072617 10 161 0.0 3.2 0.00 0.28 0.00 99 1011.8
20260510072529 10 140 1.6 3.2 0.00 0.28 0.00 99 1011.9
20260510072424 10 66 1.6 3.2 0.00 0.28 0.00 99 1011.9
20260510072320 10 79 0.0 3.2 0.00 0.28 0.00 99 1011.9
20260510072215 10 63 1.6 3.2 0.00 0.28 0.00 99 1011.8
20260510072207 10 40 1.6 3.2 0.00 0.28 0.00 99 1011.8
20260510072023 10 55 1.6 3.2 0.00 0.28 0.00 99 1011.9
20260510071918 10 30 1.6 3.2 0.00 0.28 0.00 99 1012.0
20260510071830 10 50 1.6 3.2 0.00 0.28 0.00 99 1012.0
20260510071726 10 78 1.6 3.2 0.00 0.28 0.00 99 1012.0
20260510071622 10 63 1.6 3.2 0.00 0.28 0.00 99 1011.8
20260510071517 10 0.0 1.6 0.00 0.28 0.00 99 1011.9
20260510071429 10 90 1.6 3.2 0.00 0.28 0.00 99 1012.0
20260510071324 10 102 1.6 3.2 0.00 0.28 0.00 99 1011.8
20260510071220 10 100 0.0 1.6 0.00 0.28 0.00 99 1011.9
20260510071116 10 0.0 1.6 0.00 0.28 0.00 99 1011.9
20260510071027 10 76 3.2 4.8 0.00 0.28 0.00 99 1011.9
20260510070923 10 67 3.2 3.2 0.00 0.28 0.00 99 1012.0
20260510070818 10 110 1.6 3.2 0.00 0.28 0.00 99 1012.0
20260510070810 10 132 1.6 3.2 0.00 0.28 0.00 99 1011.9
20260510070626 10 126 1.6 3.2 0.00 0.28 0.00 99 1012.0
20260510070521 10 146 1.6 3.2 0.00 0.28 0.00 99 1011.9
20260510070417 10 137 1.6 3.2 0.00 0.28 0.00 99 1011.9
20260510070329 10 0.0 1.6 0.00 0.28 0.00 99 1011.9
20260510070244 10 0.0 1.6 0.00 0.28 0.00 99 1011.8
20260510070140 10 63 1.6 3.2 0.00 0.28 0.00 99 1012.0
20260510070016 10 67 1.6 3.2 0.00 0.28 0.00 99 1011.8
20260510065947 10 68 0.0 3.2 0.00 0.28 0.00 99 1011.8
20260510065823 10 85 1.6 4.8 0.00 0.28 0.00 99 1011.9
20260510065718 10 62 1.6 4.8 0.00 0.28 0.00 99 1011.9
20260510065630 10 79 1.6 3.2 0.00 0.28 0.00 99 1011.8
20260510065546 10 95 1.6 3.2 0.00 0.28 0.00 99 1011.8
20260510065422 10 0.0 1.6 0.00 0.28 0.00 99 1012.1
20260510065317 10 0.0 1.6 0.00 0.28 0.00 99 1012.0
20260510065229 10 0.0 1.6 0.00 0.28 0.00 99 1011.8
20260510065124 10 0.0 1.6 0.00 0.28 0.00 99 1011.9
20260510065020 10 0.0 1.6 0.00 0.28 0.00 99 1011.9
20260510064916 10 76 0.0 3.2 0.00 0.28 0.00 99 1011.9
20260510064827 10 110 0.0 3.2 0.00 0.28 0.00 99 1012.0
20260510064723 10 129 1.6 3.2 0.00 0.28 0.00 99 1012.0
20260510064639 10 125 0.0 3.2 0.00 0.28 0.00 99 1011.8
20260510064550 10 105 1.6 3.2 0.00 0.28 0.00 99 1011.8
20260510064506 10 97 0.0 3.2 0.00 0.28 0.00 99 1012.0
20260510064322 10 106 0.0 1.6 0.00 0.28 0.00 99 1012.0
20260510064217 10 23 0.0 3.2 0.00 0.28 0.00 99 1011.9
20260510064129 10 0.0 1.6 0.00 0.28 0.00 99 1012.0
20260510064025 10 0.0 3.2 0.00 0.28 0.00 99 1011.8
20260510063920 10 30 1.6 3.2 0.00 0.28 0.00 99 1011.9
20260510063836 10 34 3.2 3.2 0.00 0.28 0.00 99 1011.8
20260510063728 10 42 3.2 3.2 0.00 0.28 0.00 99 1011.8
20260510063624 10 13 1.6 3.2 0.00 0.28 0.00 99 1011.9
20260510063519 10 41 1.6 4.8 0.00 0.28 0.00 99 1011.8
20260510063451 10 38 1.6 4.8 0.00 0.28 0.00 99 1011.7
20260510063327 10 41 1.6 3.2 0.00 0.28 0.00 99 1011.7
20260510063242 10 39 1.6 4.8 0.00 0.28 0.00 99 1011.7
20260510063118 10 51 1.6 3.2 0.00 0.28 0.00 99 1011.9
20260510063030 10 53 1.6 3.2 0.00 0.28 0.00 99 1011.7
20260510062925 10 46 1.6 3.2 0.00 0.28 0.00 99 1011.7
20260510062821 10 54 1.6 3.2 0.00 0.28 0.00 99 1011.5
20260510062736 10 49 0.0 1.6 0.00 0.28 0.00 99 1011.7
20260510062648 10 0.0 1.6 0.00 0.28 0.00 99 1011.6
20260510062524 10 29 0.0 1.6 0.00 0.28 0.00 99 1011.7
20260510062419 10 58 1.6 3.2 0.00 0.28 0.00 99 1011.5
20260510062315 10 73 1.6 4.8 0.00 0.28 0.00 99 1011.7
20260510062227 10 0.0 3.2 0.00 0.28 0.00 99 1011.7
20260510062122 10 87 1.6 3.2 0.00 0.28 0.00 99 1011.8
20260510062018 10 109 0.0 1.6 0.00 0.28 0.00 99 1011.6
20260510061930 10 80 0.0 1.6 0.00 0.28 0.00 99 1011.6
20260510061825 10 109 0.0 1.6 0.00 0.28 0.00 99 1011.7
20260510061721 10 0.0 1.6 0.00 0.28 0.00 99 1011.6
20260510061617 10 0.0 1.6 0.00 0.28 0.00 99 1011.5
20260510061528 10 0.0 1.6 0.00 0.28 0.00 99 1011.6
20260510061424 10 137 0.0 3.2 0.00 0.28 0.00 99 1011.8
20260510061319 10 132 1.6 3.2 0.00 0.28 0.00 99 1011.5
20260510061215 10 99 0.0 3.2 0.00 0.28 0.00 99 1011.5
20260510061127 10 80 0.0 1.6 0.00 0.28 0.00 99 1011.6
20260510061022 10 0.0 1.6 0.00 0.28 0.00 99 1011.6
20260510060918 10 81 0.0 1.6 0.00 0.28 0.00 99 1011.6
20260510060830 10 89 1.6 1.6 0.00 0.28 0.00 99 1011.6
20260510060725 10 92 1.6 3.2 0.00 0.28 0.00 99 1011.5
20260510060621 10 99 1.6 3.2 0.00 0.28 0.00 99 1011.5
20260510060517 10 109 1.6 3.2 0.00 0.28 0.00 99 1011.6
20260510060428 10 88 1.6 3.2 0.00 0.28 0.00 99 1011.7
20260510060324 10 69 1.6 3.2 0.00 0.28 0.00 99 1011.7
20260510060240 10 52 3.2 3.2 0.00 0.28 0.00 99 1011.7
20260510060115 10 67 3.2 3.2 0.00 0.28 0.00 99 1011.6
20260510060027 10 83 1.6 1.6 0.00 0.28 0.00 99 1011.7
20260510055922 10 78 0.0 1.6 0.00 0.28 0.00 99 1011.7
20260510055818 10 0.0 1.6 0.00 0.28 0.00 99 1011.6
20260510055730 10 0.0 1.6 0.00 0.28 0.00 99 1011.6
20260510055625 10 0.0 1.6 0.00 0.28 0.00 99 1011.8
20260510055521 10 110 0.0 1.6 0.00 0.28 0.00 99 1011.7
20260510055417 10 0.0 1.6 0.00 0.28 0.00 99 1011.9
20260510055328 10 0.0 3.2 0.00 0.28 0.00 99 1011.9
20260510055224 10 102 0.0 1.6 0.00 0.28 0.00 99 1011.8
20260510055120 10 14 0.0 1.6 0.00 0.28 0.00 99 1011.6
20260510055016 10 0.0 1.6 0.00 0.28 0.00 99 1011.7
20260510054927 10 36 0.0 1.6 0.00 0.28 0.00 99 1011.8
20260510054823 10 28 0.0 1.6 0.00 0.28 0.00 99 1012.0
20260510054718 10 153 1.6 3.2 0.00 0.28 0.00 99 1011.6
20260510054630 10 150 1.6 3.2 0.00 0.28 0.00 99 1011.8
20260510054526 10 55 0.0 1.6 0.00 0.28 0.00 99 1011.9
20260510054421 10 110 1.6 3.2 0.00 0.28 0.00 99 1011.8
20260510054409 10 0.0 3.2 0.00 0.28 0.00 99 1011.8
20260510054124 10 121 0.0 3.2 0.00 0.28 0.00 99 1011.7
20260510054020 10 141 1.6 3.2 0.00 0.28 0.00 99 1011.7
20260510053916 10 132 0.0 1.6 0.00 0.28 0.00 99 1011.8
20260510053827 10 148 0.0 1.6 0.00 0.28 0.00 99 1011.7
20260510053723 10 132 0.0 3.2 0.00 0.28 0.00 99 1011.6
20260510053618 10 126 1.6 3.2 0.00 0.28 0.00 99 1011.7
20260510053530 10 112 1.6 1.6 0.00 0.28 0.00 99 1011.7
20260510053426 11 143 1.6 3.2 0.00 0.28 0.00 99 1011.8
20260510053342 11 155 1.6 3.2 0.00 0.28 0.00 99 1011.7
20260510053217 11 131 1.6 3.2 0.00 0.28 0.00 99 1011.7
20260510053129 11 119 0.0 3.2 0.00 0.28 0.00 99 1011.7
20260510053104 11 0.0 1.6 0.00 0.28 0.00 99 1011.6
20260510052920 11 0.0 3.2 0.00 0.28 0.00 99 1011.8
20260510052816 11 104 1.6 3.2 0.00 0.28 0.00 99 1011.8
20260510052727 11 101 1.6 1.6 0.00 0.28 0.00 99 1011.7
20260510052623 11 50 0.0 1.6 0.00 0.28 0.00 99 1011.9
20260510052519 11 0.0 1.6 0.00 0.28 0.00 99 1011.8
20260510052430 11 52 1.6 1.6 0.00 0.28 0.00 99 1011.8
20260510052326 11 0.0 1.6 0.00 0.28 0.00 99 1011.8
20260510052242 11 89 1.6 1.6 0.00 0.28 0.00 99 1011.8
20260510052117 11 93 1.6 1.6 0.00 0.28 0.00 99 1011.7
20260510052029 11 88 1.6 3.2 0.00 0.28 0.00 99 1011.8
20260510051924 11 111 0.0 3.2 0.00 0.28 0.00 99 1011.9
20260510051840 11 85 1.6 3.2 0.00 0.28 0.00 99 1011.8
20260510051716 11 65 1.6 1.6 0.00 0.28 0.00 99 1012.0
20260510051627 11 1 1.6 1.6 0.00 0.28 0.00 99 1011.7
20260510051523 11 0.0 1.6 0.00 0.28 0.00 99 1011.8
20260510051419 11 0.0 1.6 0.00 0.28 0.00 99 1011.7
20260510051350 11 0.0 1.6 0.00 0.28 0.00 99 1011.9
20260510051226 11 0.0 1.6 0.00 0.28 0.00 99 1011.8
20260510051122 11 110 0.0 1.6 0.00 0.28 0.00 99 1011.9
20260510051017 11 0.0 1.6 0.00 0.28 0.00 99 1012.0
20260510050949 11 0.0 1.6 0.00 0.28 0.00 99 1012.0
20260510050824 11 140 0.0 3.2 0.00 0.28 0.00 99 1011.9
20260510050720 11 114 0.0 3.2 0.00 0.28 0.00 99 1011.9
20260510050616 11 112 0.0 1.6 0.00 0.28 0.00 99 1011.9
20260510050528 11 124 1.6 3.2 0.00 0.28 0.00 99 1011.9
20260510050423 11 124 1.6 1.6 0.00 0.28 0.00 99 1011.9
20260510050319 11 128 1.6 1.6 0.00 0.28 0.00 99 1011.9
20260510050231 11 102 0.0 3.2 0.00 0.28 0.00 99 1011.8
20260510050126 11 82 0.0 3.2 0.00 0.28 0.00 99 1011.7
20260510050022 11 80 0.0 1.6 0.00 0.28 0.00 99 1011.8
20260510045917 11 96 0.0 1.6 0.00 0.28 0.00 99 1011.7
20260510045829 11 108 1.6 3.2 0.00 0.28 0.00 99 1011.9
20260510045725 11 105 1.6 3.2 0.00 0.28 0.00 99 1012.0
20260510045620 10 83 0.0 3.2 0.00 0.28 0.00 99 1012.1
20260510045516 10 102 1.6 3.2 0.00 0.28 0.00 99 1012.1
20260510045428 10 121 1.6 3.2 0.00 0.28 0.00 99 1011.9
20260510045323 10 116 1.6 3.2 0.00 0.28 0.00 99 1012.0
20260510045219 10 140 1.6 3.2 0.00 0.28 0.00 99 1012.1
20260510045130 10 109 1.6 3.2 0.00 0.28 0.00 99 1012.0
20260510045026 10 101 1.6 3.2 0.00 0.28 0.00 99 1012.0
20260510044922 10 98 1.6 3.2 0.00 0.28 0.00 99 1012.0
20260510044837 10 92 1.6 3.2 0.00 0.28 0.00 99 1012.0
20260510044729 10 0.0 1.6 0.00 0.28 0.00 99 1012.1
20260510044625 10 0.0 1.6 0.00 0.28 0.00 99 1012.1
20260510044520 10 79 0.0 3.2 0.00 0.28 0.00 99 1012.2
20260510044416 10 70 1.6 3.2 0.00 0.28 0.00 99 1012.2
20260510044328 10 0.0 3.2 0.00 0.28 0.00 99 1012.2
20260510044223 10 103 1.6 1.6 0.00 0.28 0.00 99 1012.3
20260510044119 10 0.0 3.2 0.00 0.28 0.00 99 1012.2
20260510044051 10 128 1.6 3.2 0.00 0.28 0.00 99 1012.1
20260510043926 10 137 3.2 3.2 0.00 0.28 0.00 99 1012.1
20260510043822 10 136 0.0 3.2 0.00 0.28 0.00 99 1012.2
20260510043717 10 96 1.6 3.2 0.00 0.28 0.00 99 1012.1
20260510043629 10 119 0.0 3.2 0.00 0.28 0.00 99 1012.2
20260510043525 10 108 1.6 3.2 0.00 0.28 0.00 99 1011.9
20260510043440 10 0.0 3.2 0.00 0.28 0.00 99 1012.0
20260510043316 10 92 1.6 3.2 0.00 0.28 0.00 99 1011.9
20260510043228 10 98 1.6 3.2 0.00 0.28 0.00 99 1012.0
20260510043124 10 119 3.2 3.2 0.00 0.28 0.00 99 1012.0
20260510043039 10 125 1.6 3.2 0.00 0.28 0.00 99 1012.0
20260510042931 10 119 1.6 3.2 0.00 0.28 0.00 99 1012.0
20260510042826 10 130 1.6 1.6 0.00 0.28 0.00 99 1012.1
20260510042722 10 101 1.6 1.6 0.00 0.28 0.00 99 1011.9
20260510042618 10 0.0 1.6 0.00 0.28 0.00 99 1012.3
20260510042549 10 117 1.6 3.2 0.00 0.28 0.00 99 1012.2
20260510042425 10 131 1.6 3.2 0.00 0.28 0.00 99 1012.1
20260510042321 10 143 1.6 3.2 0.00 0.28 0.00 99 1012.0
20260510042216 10 125 1.6 3.2 0.00 0.28 0.00 99 1012.2
20260510042148 10 125 1.6 3.2 0.00 0.28 0.00 99 1012.1
20260510042024 10 0.0 1.6 0.00 0.28 0.00 99 1012.1
20260510041919 10 146 0.0 1.6 0.00 0.28 0.00 99 1012.1
20260510041831 10 129 1.6 3.2 0.00 0.28 0.00 99 1012.0
20260510041727 10 139 1.6 3.2 0.00 0.28 0.00 99 1012.0
20260510041622 10 117 1.6 3.2 0.00 0.28 0.00 99 1012.1
20260510041518 10 0.0 1.6 0.00 0.28 0.00 99 1012.1
20260510041429 10 140 0.0 1.6 0.00 0.28 0.00 99 1012.1
20260510041325 10 126 1.6 3.2 0.00 0.28 0.00 99 1012.2
20260510041221 10 128 0.0 1.6 0.00 0.28 0.00 99 1012.3
20260510041116 10 126 1.6 3.2 0.00 0.28 0.00 99 1012.2
20260510041048 10 151 1.6 3.2 0.00 0.28 0.00 99 1012.0
20260510040924 10 129 1.6 3.2 0.00 0.28 0.00 99 1012.1
20260510040819 10 158 0.0 3.2 0.00 0.28 0.00 99 1012.0
20260510040715 10 154 0.0 3.2 0.00 0.28 0.00 99 1011.9
20260510040647 10 140 1.6 1.6 0.00 0.28 0.00 99 1012.2
20260510040522 10 0.0 1.6 0.00 0.28 0.00 99 1012.1
20260510040438 10 149 1.6 3.2 0.00 0.28 0.00 99 1012.0
20260510040330 10 142 1.6 1.6 0.00 0.28 0.00 99 1012.0
20260510040225 10 146 1.6 3.2 0.00 0.28 0.00 99 1012.0
20260510040121 10 121 1.6 3.2 0.00 0.28 0.00 99 1012.0
20260510040037 10 40 0.0 1.6 0.00 0.28 0.00 99 1011.9
20260510035948 10 130 0.0 1.6 0.00 0.28 0.28 99 1012.0
20260510035824 10 127 1.6 1.6 0.00 0.28 0.28 99 1011.9
20260510035719 10 0.0 0.0 0.00 0.28 0.28 99 1011.9
20260510035615 10 133 0.0 3.2 0.00 0.28 0.28 99 1011.9
20260510035547 10 0.0 3.2 0.00 0.28 0.28 99 1011.9
20260510035422 10 103 1.6 1.6 0.00 0.28 0.28 99 1011.8
20260510035318 10 164 1.6 3.2 0.00 0.28 0.28 99 1011.7
20260510035230 10 175 1.6 3.2 0.00 0.28 0.28 99 1011.8
20260510035126 10 156 0.0 3.2 0.00 0.28 0.28 99 1011.7
20260510035021 9 156 1.6 1.6 0.00 0.28 0.28 99 1011.8
20260510034917 9 153 0.0 1.6 0.00 0.28 0.28 99 1011.7
20260510034828 9 0.0 3.2 0.00 0.28 0.28 99 1011.8
20260510034724 9 138 0.0 3.2 0.00 0.28 0.28 99 1011.8
20260510034620 9 170 0.0 3.2 0.00 0.28 0.28 99 1011.8
20260510034515 9 157 1.6 3.2 0.00 0.28 0.28 99 1011.8
20260510034427 9 184 0.0 3.2 0.00 0.28 0.28 99 1011.8
20260510034322 9 158 0.0 3.2 0.00 0.28 0.28 99 1011.7
20260510034218 9 158 1.6 3.2 0.00 0.28 0.28 99 1011.8
20260510034130 9 152 1.6 3.2 0.00 0.28 0.28 99 1011.6
20260510034025 9 136 0.0 3.2 0.00 0.28 0.28 99 1011.7
20260510033921 9 0.0 3.2 0.00 0.28 0.28 99 1011.7
20260510033816 9 149 1.6 3.2 0.00 0.28 0.28 99 1011.8
20260510033728 10 0.0 3.2 0.00 0.28 0.28 99 1011.7
20260510033644 10 0.0 1.6 0.00 0.28 0.28 99 1011.7
20260510033519 10 0.0 3.2 0.00 0.28 0.28 99 1011.8
20260510033415 10 153 0.0 3.2 0.00 0.28 0.28 99 1011.7
20260510033327 10 124 0.0 3.2 0.00 0.28 0.28 99 1011.6
20260510033222 10 130 0.0 1.6 0.00 0.28 0.28 99 1011.7
20260510033118 10 0.0 3.2 0.00 0.28 0.28 99 1011.7
20260510033030 10 0.0 3.2 0.00 0.28 0.28 99 1011.7
20260510032945 9 178 1.6 3.2 0.00 0.28 0.28 99 1011.7
20260510032820 9 187 1.6 1.6 0.00 0.28 0.28 99 1011.8
20260510032736 10 154 1.6 3.2 0.00 0.28 0.28 99 1011.7
20260510032628 10 0.0 3.2 0.00 0.28 0.28 99 1011.8
20260510032523 9 0.0 3.2 0.00 0.28 0.28 99 1011.7
20260510032419 9 115 0.0 3.2 0.00 0.28 0.28 99 1011.6
20260510032331 9 129 0.0 3.2 0.00 0.28 0.28 99 1011.8
20260510032246 10 122 1.6 3.2 0.00 0.28 0.28 99 1011.7
20260510032122 10 134 1.6 3.2 0.00 0.28 0.28 99 1011.8
20260510032018 10 0.0 1.6 0.00 0.28 0.28 99 1011.6
20260510031929 10 0.0 1.6 0.00 0.28 0.28 99 1011.7
20260510031825 10 127 1.6 3.2 0.00 0.28 0.28 99 1011.8
20260510031720 10 0.0 1.6 0.00 0.28 0.28 99 1011.7
20260510031616 10 127 0.0 3.2 0.00 0.28 0.28 99 1011.8
20260510031528 10 130 0.0 3.2 0.00 0.28 0.28 99 1011.8
20260510031424 10 94 0.0 3.2 0.00 0.28 0.28 99 1011.7
20260510031319 10 125 1.6 3.2 0.00 0.28 0.28 99 1011.6
20260510031231 10 126 0.0 3.2 0.00 0.28 0.28 99 1011.5
20260510031127 10 0.0 1.6 0.00 0.28 0.28 99 1011.7
20260510031022 10 88 1.6 3.2 0.00 0.28 0.28 99 1011.7
20260510030918 10 0.0 1.6 0.00 0.28 0.28 99 1011.6
20260510030830 10 91 1.6 1.6 0.00 0.28 0.28 99 1011.7
20260510030725 10 180 1.6 1.6 0.00 0.28 0.28 99 1011.9
20260510030621 10 109 1.6 3.2 0.00 0.28 0.28 99 1012.3
20260510030536 10 132 1.6 3.2 0.00 0.28 0.28 99 1012.8
20260510030428 10 127 1.6 3.2 0.00 0.28 0.28 99 1014.1
20260510030404 10 129 0.0 3.2 0.00 0.28 0.28 99 1016.4
20260510030219 10 0.0 1.6 0.00 0.28 0.28 99 1021.3
20260510030131 10 132 1.6 1.6 0.00 0.28 0.28 99 1028.5
20260510030027 10 0.0 1.6 0.00 0.28 0.28 99 1050.1
20260510025922 10 0.0 1.6 0.00 0.28 0.28 99 1088.5
20260510025858 10 0.0 1.6 0.00 0.28 0.28 99 1011.7
20260510025729 10 0.0 1.6 0.00 0.28 0.28 99 1011.6
20260510025645 10 116 1.6 3.2 0.00 0.28 0.28 99 1011.5
20260510025520 10 134 0.0 3.2 0.00 0.28 0.28 99 1011.7
20260510025416 10 139 0.0 3.2 0.00 0.28 0.28 99 1011.6
20260510025328 10 130 1.6 3.2 0.00 0.28 0.28 99 1011.5
20260510025224 10 123 1.6 3.2 0.00 0.28 0.28 99 1011.5
20260510025119 10 113 1.6 3.2 0.00 0.28 0.28 99 1011.5
20260510025035 10 99 1.6 3.2 0.00 0.28 0.28 99 1011.6
20260510024927 10 92 1.6 3.2 0.00 0.28 0.28 99 1011.6
20260510024822 10 108 1.6 3.2 0.00 0.28 0.28 99 1011.6
20260510024718 10 103 1.6 3.2 0.00 0.28 0.28 99 1011.7
20260510024630 10 121 1.6 3.2 0.00 0.28 0.28 99 1011.8
20260510024525 10 71 1.6 3.2 0.00 0.28 0.28 99 1011.7
20260510024421 10 82 0.0 3.2 0.00 0.28 0.28 99 1011.6
20260510024316 10 78 1.6 3.2 0.00 0.28 0.28 99 1011.7
20260510024228 10 102 1.6 3.2 0.00 0.28 0.28 99 1011.5
20260510024124 10 85 1.6 3.2 0.00 0.28 0.28 99 1011.7
20260510024020 10 99 1.6 3.2 0.00 0.28 0.28 99 1011.7
20260510023915 10 99 3.2 3.2 0.00 0.28 0.28 99 1011.6
20260510023827 10 105 1.6 3.2 0.00 0.28 0.28 98 1011.7
20260510023723 10 123 0.0 1.6 0.00 0.28 0.28 98 1011.7
20260510023618 10 0.0 1.6 0.00 0.28 0.28 98 1011.6
20260510023550 10 0.0 3.2 0.00 0.28 0.28 98 1011.7
20260510023426 10 110 1.6 3.2 0.00 0.28 0.28 98 1011.7
20260510023321 10 118 1.6 3.2 0.00 0.28 0.28 98 1011.8
20260510023217 10 113 1.6 3.2 0.00 0.28 0.28 98 1011.7
20260510023129 10 93 1.6 3.2 0.00 0.28 0.28 98 1011.6
20260510023024 10 124 1.6 3.2 0.00 0.28 0.28 98 1011.6
20260510022920 10 120 1.6 3.2 0.00 0.28 0.28 98 1011.6
20260510022816 10 0.0 3.2 0.00 0.28 0.28 98 1011.7
20260510022727 10 102 1.6 3.2 0.00 0.28 0.28 98 1011.8
20260510022623 10 126 0.0 3.2 0.00 0.28 0.28 98 1011.8
20260510022518 10 131 0.0 1.6 0.00 0.28 0.28 98 1011.6
20260510022430 10 0.0 1.6 0.00 0.28 0.28 98 1011.5
20260510022326 10 106 1.6 1.6 0.00 0.28 0.28 98 1011.8
20260510022221 10 0.0 1.6 0.00 0.28 0.28 98 1011.6
20260510022125 10 0.0 0.0 0.00 0.28 0.28 98 1011.6
20260510021820 10 0.0 3.2 0.00 0.28 0.28 98 1011.6
20260510021716 10 132 1.6 3.2 0.00 0.28 0.28 98 1011.7
20260510021627 10 141 1.6 3.2 0.00 0.28 0.28 98 1011.7
20260510021523 10 147 1.6 3.2 0.00 0.28 0.28 98 1011.8
20260510021419 10 137 0.0 3.2 0.00 0.28 0.28 98 1011.8
20260510021330 10 141 0.0 3.2 0.00 0.28 0.28 98 1011.7
20260510021226 10 137 1.6 3.2 0.00 0.28 0.28 98 1011.8
20260510021122 10 142 1.6 3.2 0.00 0.28 0.28 98 1011.5
20260510021017 10 133 1.6 3.2 0.00 0.28 0.28 98 1011.5
20260510020929 10 115 1.6 3.2 0.00 0.28 0.28 98 1011.7
20260510020825 10 102 1.6 3.2 0.00 0.28 0.28 98 1011.7
20260510020721 10 126 0.0 1.6 0.00 0.28 0.28 98 1011.6
20260510020616 10 0.0 1.6 0.00 0.28 0.28 98 1011.5
20260510020528 10 99 1.6 1.6 0.00 0.28 0.28 98 1011.7
20260510020423 10 136 1.6 3.2 0.00 0.28 0.28 98 1011.7
20260510020319 10 144 0.0 3.2 0.00 0.28 0.28 98 1011.6
20260510020251 10 135 1.6 3.2 0.00 0.28 0.28 98 1011.5
20260510020126 10 0.0 1.6 0.00 0.28 0.28 98 1011.5
20260510020022 10 144 1.6 3.2 0.00 0.28 0.28 98 1011.7
20260510015918 10 100 0.0 1.6 0.00 0.28 0.28 98 1011.4
20260510015850 10 98 1.6 3.2 0.00 0.28 0.28 98 1011.6
20260510015725 10 64 0.0 3.2 0.00 0.28 0.28 98 1011.3
20260510015641 10 0.0 3.2 0.00 0.28 0.28 98 1011.6
20260510015517 10 0.0 1.6 0.00 0.28 0.28 98 1011.7
20260510015428 10 109 0.0 1.6 0.00 0.28 0.28 98 1011.6
20260510015324 10 0.0 1.6 0.00 0.28 0.28 98 1011.6
20260510015220 10 0.0 1.6 0.00 0.28 0.28 98 1011.8
20260510015115 10 157 1.6 3.2 0.00 0.28 0.28 98 1011.8
20260510015027 11 0.0 3.2 0.00 0.28 0.28 98 1011.6
20260510014922 11 144 0.0 3.2 0.00 0.28 0.28 98 1011.7
20260510014818 11 138 0.0 1.6 0.00 0.28 0.28 98 1011.7
20260510014730 11 0.0 3.2 0.00 0.28 0.28 98 1011.6
20260510014706 11 0.0 1.6 0.00 0.28 0.28 98 1011.6
20260510014521 11 102 0.0 1.6 0.00 0.28 0.28 98 1011.5
20260510014417 11 134 1.6 1.6 0.00 0.28 0.28 98 1011.6
20260510014328 11 119 0.0 3.2 0.00 0.28 0.28 98 1011.6
20260510014224 11 139 1.6 3.2 0.00 0.28 0.28 98 1011.5
20260510014120 11 147 1.6 3.2 0.00 0.28 0.28 98 1011.6
20260510014107 11 128 1.6 3.2 0.00 0.28 0.28 98 1011.6
20260510013823 11 133 1.6 3.2 0.00 0.28 0.28 98 1011.5
20260510013718 11 135 0.0 3.2 0.00 0.28 0.28 98 1011.8
20260510013650 11 137 0.0 3.2 0.00 0.28 0.28 98 1011.6
20260510013525 11 0.0 0.0 0.00 0.28 0.28 98 1011.6
20260510013441 11 0.0 0.0 0.00 0.28 0.28 98 1011.7
20260510013337 11 0.0 1.6 0.00 0.28 0.28 98 1011.6
20260510013248 11 0.0 1.6 0.00 0.28 0.28 98 1011.6
20260510013124 11 0.0 0.0 0.00 0.28 0.28 98 1011.4
20260510013020 11 0.0 3.2 0.00 0.28 0.28 98 1011.5
20260510012915 11 120 1.6 3.2 0.00 0.28 0.28 98 1011.5
20260510012827 11 119 1.6 3.2 0.00 0.28 0.28 98 1011.5
20260510012723 11 126 1.6 3.2 0.00 0.28 0.28 98 1011.4
20260510012639 11 129 1.6 3.2 0.00 0.28 0.28 98 1011.5
20260510012530 11 130 1.6 1.6 0.00 0.28 0.28 98 1011.5
20260510012446 11 109 0.0 3.2 0.00 0.28 0.28 98 1011.7
20260510012322 11 0.0 1.6 0.00 0.28 0.28 98 1011.4
20260510012217 11 0.0 0.0 0.00 0.28 0.28 98 1011.5
20260510012129 11 0.0 1.6 0.00 0.28 0.28 98 1011.6
20260510012025 11 0.0 1.6 0.00 0.28 0.28 98 1011.5
20260510011920 11 0.0 1.6 0.00 0.28 0.28 98 1011.5
20260510011816 11 131 1.6 1.6 0.00 0.28 0.28 98 1011.7
20260510011728 11 0.0 1.6 0.00 0.28 0.28 98 1011.6
20260510011623 11 0.0 1.6 0.00 0.28 0.28 98 1011.7
20260510011519 11 95 0.0 3.2 0.00 0.28 0.28 98 1011.6
20260510011430 11 90 1.6 3.2 0.00 0.28 0.28 98 1011.5
20260510011326 11 0.0 1.6 0.00 0.28 0.28 98 1011.6
20260510011222 11 134 0.0 1.6 0.00 0.28 0.28 98 1011.7
20260510011117 11 0.0 3.2 0.00 0.28 0.28 98 1011.6
20260510011029 11 86 0.0 3.2 0.00 0.28 0.28 98 1011.6
20260510010925 11 134 0.0 3.2 0.00 0.28 0.28 98 1011.5
20260510010840 11 0.0 1.6 0.00 0.28 0.28 98 1011.5
20260510010716 11 0.0 3.2 0.00 0.28 0.28 98 1011.6
20260510010627 11 130 0.0 3.2 0.00 0.28 0.28 98 1011.3
20260510010523 11 0.0 0.0 0.00 0.28 0.28 98 1011.4
20260510010419 11 0.0 1.6 0.00 0.28 0.28 98 1011.5
20260510010331 11 114 1.6 1.6 0.00 0.28 0.28 98 1011.5
20260510010226 11 37 0.0 3.2 0.00 0.28 0.28 98 1011.4
20260510010122 11 144 1.6 3.2 0.00 0.28 0.28 97 1011.2
20260510010017 11 0.0 1.6 0.00 0.28 0.28 97 1011.4
20260510005949 11 0.0 3.2 0.00 0.28 0.28 97 1011.2
20260510005825 11 142 0.0 3.2 0.00 0.28 0.28 97 1011.2
20260510005720 11 105 1.6 3.2 0.00 0.28 0.28 97 1011.1
20260510005616 11 121 1.6 3.2 0.00 0.28 0.28 97 1011.1
20260510005528 11 117 0.0 1.6 0.00 0.28 0.28 97 1011.1
20260510005423 11 115 1.6 1.6 0.00 0.28 0.28 97 1011.3
20260510005319 11 89 0.0 1.6 0.00 0.28 0.28 97 1011.3
20260510005230 11 153 1.6 3.2 0.00 0.28 0.28 97 1011.3
20260510005126 11 149 1.6 3.2 0.00 0.28 0.28 97 1011.2
20260510005022 11 141 1.6 3.2 0.00 0.28 0.28 97 1011.3
20260510004917 11 139 1.6 3.2 0.00 0.28 0.28 97 1011.0
20260510004829 11 126 1.6 3.2 0.00 0.28 0.28 97 1011.2
20260510004725 11 121 1.6 3.2 0.00 0.28 0.28 97 1011.2
20260510004620 11 113 0.0 3.2 0.00 0.28 0.28 97 1011.3
20260510004516 11 126 1.6 3.2 0.00 0.28 0.28 97 1011.2
20260510004428 11 112 1.6 3.2 0.00 0.28 0.28 97 1010.9
20260510004343 11 93 1.6 3.2 0.00 0.28 0.28 97 1011.2
20260510004219 11 95 1.6 3.2 0.00 0.28 0.28 97 1011.0
20260510004130 11 116 0.0 1.6 0.00 0.28 0.28 97 1011.0
20260510004026 11 127 1.6 3.2 0.00 0.28 0.28 97 1011.0
20260510003922 11 146 1.6 3.2 0.00 0.28 0.28 97 1011.1
20260510003817 12 158 1.6 3.2 0.00 0.28 0.28 97 1011.1
20260510003729 12 120 1.6 3.2 0.00 0.28 0.28 97 1011.1
20260510003645 12 116 3.2 3.2 0.00 0.28 0.28 97 1011.2
20260510003520 11 142 1.6 3.2 0.00 0.28 0.28 97 1011.0
20260510003416 12 149 1.6 3.2 0.00 0.28 0.28 97 1011.2
20260510003348 12 0.0 3.2 0.00 0.28 0.28 97 1010.9
20260510003243 12 141 0.0 3.2 0.00 0.28 0.28 97 1011.3
20260510003119 11 91 0.0 1.6 0.00 0.28 0.28 97 1011.1
20260510003031 11 0.0 1.6 0.00 0.28 0.28 97 1011.2
20260510002946 12 117 1.6 1.6 0.00 0.28 0.28 97 1011.1
20260510002822 12 122 0.0 1.6 0.00 0.28 0.28 97 1011.1
20260510002738 12 0.0 3.2 0.00 0.28 0.28 97 1011.2
20260510002629 12 142 1.6 3.2 0.00 0.28 0.28 97 1011.1
20260510002525 12 132 1.6 3.2 0.00 0.28 0.28 97 1011.0
20260510002420 12 0.0 1.6 0.00 0.28 0.28 97 1011.0
20260510002316 12 81 0.0 3.2 0.00 0.28 0.28 97 1011.2
20260510002228 12 0.0 3.2 0.00 0.28 0.28 97 1011.1
20260510002203 12 133 1.6 3.2 0.00 0.28 0.28 97 1011.1
20260510002019 12 184 0.0 3.2 0.00 0.28 0.28 97 1011.2
20260510001931 12 130 3.2 3.2 0.00 0.28 0.28 97 1011.1
20260510001846 12 116 3.2 3.2 0.00 0.28 0.28 96 1011.1
20260510001722 12 137 1.6 3.2 0.00 0.28 0.28 96 1011.2
20260510001617 12 150 3.2 3.2 0.00 0.28 0.28 96 1011.1
20260510001529 12 147 1.6 3.2 0.00 0.28 0.28 96 1011.1
20260510001425 12 139 1.6 3.2 0.00 0.28 0.28 96 1010.9
20260510001320 12 129 1.6 3.2 0.00 0.28 0.28 96 1011.2
20260510001236 12 0.0 1.6 0.00 0.28 0.28 96 1011.0
20260510001128 12 139 0.0 3.2 0.00 0.28 0.28 96 1011.0
20260510001024 12 138 0.0 3.2 0.00 0.28 0.28 96 1011.1
20260510000919 12 126 0.0 1.6 0.00 0.28 0.28 96 1011.0
20260510000831 12 0.0 1.6 0.00 0.28 0.28 96 1011.1
20260510000746 12 166 1.6 1.6 0.00 0.28 0.28 96 1011.2
20260510000622 12 138 1.6 3.2 0.00 0.28 0.28 96 1011.2
20260510000518 12 0.0 3.2 0.00 0.28 0.28 96 1011.2
20260510000429 12 124 0.0 1.6 0.00 0.28 0.28 96 1011.1
20260510000326 12 0.0 1.6 0.00 0.28 0.28 96 1011.1
20260510000221 12 0.0 3.2 0.00 0.28 0.28 96 1011.1
20260510000116 12 0.0 1.6 0.00 0.28 0.28 96 1011.1
20260510000028 12 0.0 1.6 0.00 0.28 0.28 96 1011.1
20260509235923 12 116 0.0 1.6 0.00 0.28 0.28 96 1011.0
20260509235819 12 0.0 1.6 0.00 0.28 0.28 96 1010.9
20260509235751 12 117 1.6 3.2 0.00 0.28 0.28 96 1010.9
20260509235646 12 78 1.6 3.2 0.00 0.28 0.28 96 1011.0
20260509235522 12 102 0.0 3.2 0.00 0.28 0.28 96 1010.9
20260509235418 12 0.0 0.0 0.00 0.28 0.28 96 1011.0
20260509235329 12 0.0 1.6 0.00 0.28 0.28 96 1011.0
20260509235225 12 136 1.6 3.2 0.00 0.28 0.28 96 1010.9
20260509235121 12 0.0 3.2 0.00 0.28 0.28 96 1010.9
20260509235017 12 137 1.6 1.6 0.00 0.28 0.28 96 1010.8
20260509234928 12 0.0 3.2 0.00 0.28 0.28 95 1010.9
20260509234844 12 129 1.6 3.2 0.00 0.28 0.28 95 1010.8
20260509234719 12 154 0.0 3.2 0.00 0.28 0.28 95 1010.9
20260509234635 12 149 1.6 3.2 0.00 0.28 0.28 95 1010.8
20260509234607 12 151 0.0 3.2 0.00 0.28 0.28 95 1010.9
20260509234422 12 155 1.6 3.2 0.00 0.28 0.28 95 1010.9
20260509234318 12 161 0.0 1.6 0.00 0.28 0.28 95 1011.1
20260509234230 12 187 0.0 1.6 0.00 0.28 0.28 95 1011.0
20260509234126 13 131 1.6 3.2 0.00 0.28 0.28 95 1010.9
20260509234021 13 152 0.0 3.2 0.00 0.28 0.28 95 1010.9
20260509233917 13 141 1.6 3.2 0.00 0.28 0.28 95 1011.0
20260509233828 13 135 3.2 4.8 0.00 0.28 0.28 95 1010.9
20260509233724 13 117 1.6 4.8 0.00 0.28 0.28 95 1010.9
20260509233619 13 107 3.2 3.2 0.00 0.28 0.28 95 1010.9
20260509233515 13 117 1.6 3.2 0.00 0.28 0.28 95 1011.0
20260509233427 13 113 1.6 3.2 0.00 0.28 0.28 95 1010.9
20260509233403 13 126 1.6 3.2 0.00 0.28 0.28 95 1010.8
20260509233218 13 105 1.6 3.2 0.00 0.28 0.28 95 1010.9
20260509233130 13 89 1.6 3.2 0.00 0.28 0.28 95 1010.9
20260509233026 13 90 1.6 3.2 0.00 0.28 0.28 95 1010.8
20260509232921 13 85 1.6 3.2 0.00 0.28 0.28 94 1010.8
20260509232817 13 88 1.6 3.2 0.00 0.28 0.28 94 1010.9
20260509232728 13 91 3.2 3.2 0.00 0.28 0.28 94 1010.8
20260509232624 13 81 1.6 3.2 0.00 0.28 0.28 94 1010.8
20260509232520 13 0.0 1.6 0.00 0.28 0.28 94 1010.8
20260509232415 13 62 1.6 3.2 0.00 0.28 0.28 94 1010.7
20260509232327 13 78 1.6 3.2 0.00 0.28 0.28 94 1010.8
20260509232243 13 96 1.6 3.2 0.00 0.28 0.28 94 1010.8
20260509232118 13 118 3.2 3.2 0.00 0.28 0.28 94 1010.6
20260509232050 13 114 3.2 3.2 0.00 0.28 0.28 94 1010.6
20260509231926 13 72 1.6 3.2 0.00 0.28 0.28 94 1010.9
20260509231821 13 109 0.0 1.6 0.00 0.28 0.28 94 1010.8
20260509231717 13 109 0.0 3.2 0.00 0.28 0.28 94 1010.6
20260509231649 13 113 3.2 4.8 0.00 0.28 0.28 94 1010.8
20260509231525 13 146 1.6 3.2 0.00 0.28 0.28 94 1010.6
20260509231420 13 161 0.0 3.2 0.00 0.28 0.28 94 1010.7
20260509231336 13 106 1.6 3.2 0.00 0.28 0.28 94 1010.6
20260509231228 13 74 1.6 4.8 0.00 0.28 0.28 94 1010.8
20260509231123 13 84 1.6 3.2 0.00 0.28 0.28 94 1010.7
20260509231019 13 0.0 3.2 0.00 0.28 0.28 94 1010.8
20260509230931 13 132 3.2 3.2 0.00 0.28 0.28 94 1010.8
20260509230846 13 104 3.2 3.2 0.00 0.28 0.28 94 1010.8
20260509230722 13 114 1.6 3.2 0.00 0.28 0.28 94 1011.1
20260509230618 13 132 1.6 3.2 0.00 0.28 0.28 94 1010.9
20260509230529 13 126 1.6 3.2 0.00 0.28 0.28 94 1010.9
20260509230445 13 0.0 3.2 0.00 0.28 0.28 94 1011.0
20260509230321 13 131 1.6 3.2 0.00 0.28 0.28 94 1011.1
20260509230216 13 108 1.6 3.2 0.00 0.28 0.28 94 1011.0
20260509230148 13 145 1.6 3.2 0.00 0.28 0.28 94 1011.0
20260509230024 13 0.0 0.0 0.00 0.28 0.28 94 1010.9
20260509225919 13 0.0 1.6 0.00 0.28 0.28 94 1010.8
20260509225831 13 156 0.0 1.6 0.00 0.28 0.28 94 1011.0
20260509225727 13 119 1.6 3.2 0.00 0.28 0.28 94 1011.0
20260509225622 13 134 1.6 3.2 0.00 0.28 0.28 94 1011.0
20260509225518 13 149 1.6 3.2 0.00 0.28 0.28 94 1011.0
20260509225429 13 132 3.2 3.2 0.03 0.28 0.28 94 1011.0
20260509225325 13 143 3.2 4.8 0.03 0.28 0.28 94 1011.1
20260509225220 13 145 3.2 4.8 0.03 0.28 0.28 95 1011.1
20260509225116 13 0.0 3.2 0.05 0.28 0.28 95 1011.1
20260509225028 13 128 1.6 3.2 0.05 0.28 0.28 95 1010.9
20260509224923 13 117 1.6 3.2 0.05 0.28 0.28 95 1010.9
20260509224819 13 112 1.6 3.2 0.05 0.28 0.28 95 1010.9
20260509224731 13 125 3.2 3.2 0.05 0.28 0.28 95 1011.1
20260509224646 13 149 1.6 4.8 0.05 0.28 0.28 95 1011.2
20260509224522 13 127 3.2 4.8 0.05 0.28 0.28 95 1011.0
20260509224417 13 121 1.6 3.2 0.08 0.28 0.28 95 1011.2
20260509224329 13 119 1.6 3.2 0.08 0.28 0.28 95 1011.0
20260509224225 13 103 1.6 3.2 0.08 0.28 0.28 95 1011.1
20260509224120 13 132 1.6 3.2 0.08 0.28 0.28 95 1010.8
20260509224036 13 150 3.2 4.8 0.08 0.28 0.28 95 1011.0
20260509223928 13 113 1.6 3.2 0.08 0.28 0.28 95 1011.1
20260509223843 13 101 3.2 4.8 0.08 0.28 0.28 95 1011.0
20260509223719 13 56 3.2 4.8 0.08 0.28 0.28 95 1011.0
20260509223631 13 83 1.6 3.2 0.08 0.28 0.28 95 1011.2
20260509223546 13 116 1.6 3.2 0.08 0.28 0.28 95 1011.0
20260509223422 13 131 1.6 3.2 0.08 0.28 0.28 95 1011.0
20260509223318 13 139 1.6 3.2 0.08 0.28 0.28 95 1010.8
20260509223229 13 150 3.2 3.2 0.10 0.28 0.28 95 1011.0
20260509223125 13 138 1.6 3.2 0.10 0.28 0.28 95 1010.9
20260509223021 13 146 1.6 3.2 0.10 0.28 0.28 94 1011.2
20260509222936 13 146 3.2 3.2 0.15 0.28 0.28 94 1011.1
20260509222828 13 154 3.2 4.8 0.15 0.28 0.28 94 1011.1
20260509222744 13 133 3.2 4.8 0.18 0.28 0.28 94 1011.2
20260509222619 13 88 1.6 3.2 0.18 0.28 0.28 94 1011.1
20260509222531 13 82 1.6 3.2 0.18 0.28 0.28 94 1011.1
20260509222426 13 95 1.6 3.2 0.18 0.28 0.28 94 1011.4
20260509222322 13 71 0.0 3.2 0.18 0.28 0.28 94 1011.3
20260509222218 13 106 0.0 1.6 0.18 0.28 0.28 94 1011.3
20260509222129 13 0.0 1.6 0.18 0.28 0.28 94 1011.2
20260509222025 13 0.0 1.6 0.18 0.28 0.28 94 1011.4
20260509221921 13 83 0.0 1.6 0.18 0.28 0.28 94 1011.2
20260509221816 13 0.0 1.6 0.18 0.28 0.28 94 1011.3
20260509221728 13 66 1.6 3.2 0.20 0.28 0.28 94 1011.3
20260509221624 13 90 1.6 3.2 0.20 0.28 0.28 94 1011.4
20260509221519 13 0.0 1.6 0.20 0.28 0.28 94 1011.3
20260509221431 13 0.0 1.6 0.20 0.28 0.28 94 1011.4
20260509221326 13 123 0.0 1.6 0.20 0.28 0.28 94 1011.5
20260509221222 13 0.0 1.6 0.20 0.28 0.28 94 1011.3
20260509221118 13 0.0 1.6 0.20 0.28 0.28 94 1011.4
20260509221029 13 134 1.6 3.2 0.20 0.28 0.28 94 1011.4
20260509220925 13 134 1.6 3.2 0.20 0.28 0.28 94 1011.4
20260509220821 13 136 3.2 3.2 0.20 0.28 0.28 94 1011.6
20260509220716 13 138 1.6 3.2 0.20 0.28 0.28 94 1011.5
20260509220628 13 115 1.6 3.2 0.20 0.28 0.28 94 1011.2
20260509220523 13 78 3.2 3.2 0.20 0.28 0.28 94 1011.5
20260509220419 13 88 1.6 3.2 0.20 0.28 0.28 94 1011.5
20260509220331 13 111 1.6 3.2 0.20 0.28 0.28 94 1011.7
20260509220226 13 132 1.6 3.2 0.20 0.28 0.28 94 1011.6
20260509220122 13 141 1.6 3.2 0.20 0.28 0.28 93 1011.5
20260509220018 13 123 1.6 3.2 0.20 0.28 0.28 93 1011.6
20260509215929 13 119 3.2 4.8 0.20 0.28 0.28 93 1011.6
20260509215825 13 121 1.6 4.8 0.20 0.28 0.28 93 1011.6
20260509215721 13 120 3.2 3.2 0.20 0.28 0.28 93 1011.6
20260509215616 13 123 1.6 4.8 0.20 0.28 0.28 93 1011.6
20260509215528 13 115 1.6 3.2 0.20 0.28 0.28 92 1011.7
20260509215424 13 101 3.2 3.2 0.18 0.25 0.25 92 1011.6
20260509215320 13 152 3.2 3.2 0.18 0.25 0.25 92 1011.8
20260509215215 13 151 1.6 3.2 0.18 0.25 0.25 92 1011.7
20260509215127 13 141 3.2 4.8 0.18 0.25 0.25 91 1011.7
20260509215042 13 137 3.2 3.2 0.15 0.23 0.23 91 1011.7
20260509214930 13 0.0 3.2 0.15 0.23 0.23 91 1011.8
20260509214725 13 124 1.6 3.2 0.15 0.23 0.23 91 1011.6
20260509214621 13 121 1.6 3.2 0.15 0.23 0.23 91 1011.7
20260509214517 13 158 1.6 3.2 0.15 0.23 0.23 91 1011.6
20260509214428 13 139 3.2 3.2 0.15 0.23 0.23 91 1011.5
20260509214324 13 134 1.6 3.2 0.15 0.23 0.23 91 1011.4
20260509214220 13 98 1.6 3.2 0.15 0.23 0.23 90 1011.5
20260509214115 13 113 1.6 3.2 0.15 0.23 0.23 90 1011.5
20260509214027 13 124 0.0 3.2 0.15 0.23 0.23 90 1011.5
20260509213923 13 94 1.6 3.2 0.15 0.23 0.23 90 1011.5
20260509213819 13 124 1.6 3.2 0.15 0.23 0.23 89 1011.4
20260509213750 13 165 1.6 3.2 0.15 0.23 0.23 89 1011.4
20260509213626 13 166 1.6 4.8 0.15 0.23 0.23 88 1011.5
20260509213522 13 126 1.6 3.2 0.15 0.23 0.23 88 1011.6
20260509213417 13 86 1.6 1.6 0.13 0.20 0.20 88 1011.6
20260509213329 13 81 1.6 3.2 0.13 0.20 0.20 87 1011.6
20260509213224 13 74 1.6 3.2 0.13 0.20 0.20 86 1011.7
20260509213120 14 89 3.2 3.2 0.10 0.18 0.18 86 1011.8
20260509213016 14 61 1.6 3.2 0.10 0.18 0.18 86 1011.9
20260509212928 14 95 1.6 3.2 0.08 0.15 0.15 86 1011.8
20260509212919 14 284 1.6 3.2 0.05 0.13 0.13 86 1011.8
20260509212859 14 158 1.6 3.2 0.05 0.13 0.13 86 1011.8
20260509212631 14 179 1.6 3.2 0.05 0.13 0.13 85 1011.7
20260509212526 14 153 1.6 3.2 0.03 0.10 0.10 85 1011.7
20260509212442 14 161 1.6 3.2 0.03 0.10 0.10 84 1011.7
20260509212317 14 166 0.0 3.2 0.03 0.10 0.10 84 1011.7
20260509212249 14 167 0.0 3.2 0.03 0.10 0.10 85 1011.6
20260509212125 14 0.0 1.6 0.03 0.10 0.10 84 1011.3
20260509212021 14 0.0 1.6 0.03 0.10 0.10 84 1011.5
20260509211916 14 75 0.0 3.2 0.03 0.10 0.10 84 1011.4
20260509211828 14 31 0.0 3.2 0.03 0.10 0.10 84 1011.2
20260509211723 14 0.0 0.0 0.00 0.10 0.10 83 1011.4
20260509211619 14 0.0 1.6 0.00 0.10 0.10 83 1011.2
20260509211531 14 145 1.6 3.2 0.00 0.10 0.10 83 1011.2
20260509211426 14 141 1.6 3.2 0.00 0.10 0.10 82 1011.2
20260509211322 14 171 0.0 3.2 0.00 0.10 0.10 81 1011.3
20260509211217 14 0.0 3.2 0.00 0.10 0.10 82 1011.1
20260509211129 14 117 0.0 3.2 0.00 0.10 0.10 82 1011.3
20260509211025 14 118 0.0 3.2 0.00 0.10 0.10 82 1011.0
20260509210920 14 89 3.2 4.8 0.00 0.10 0.10 82 1011.1
20260509210816 14 94 3.2 4.8 0.00 0.10 0.10 82 1011.3
20260509210728 14 70 3.2 3.2 0.00 0.08 0.08 81 1011.3
20260509210623 14 152 1.6 3.2 0.00 0.08 0.08 81 1011.6
20260509210519 14 303 0.0 3.2 0.00 0.08 0.08 81 1011.5
20260509210431 14 71 0.0 3.2 0.00 0.08 0.08 81 1011.4
20260509210326 14 94 0.0 3.2 0.00 0.08 0.08 81 1011.4
20260509210222 14 93 1.6 3.2 0.00 0.08 0.08 80 1011.4
20260509210118 14 65 3.2 4.8 0.00 0.08 0.08 80 1011.4
20260509210029 14 73 3.2 4.8 0.00 0.08 0.08 80 1011.6
20260509205925 14 55 1.6 3.2 0.00 0.08 0.08 80 1011.5
20260509205821 14 202 0.0 3.2 0.00 0.08 0.08 80 1011.6
20260509205736 14 195 3.2 6.4 0.00 0.08 0.08 80 1011.6
20260509205628 15 178 3.2 3.2 0.00 0.08 0.08 79 1011.5
20260509205523 15 184 1.6 3.2 0.00 0.08 0.08 80 1011.4
20260509205419 15 153 0.0 1.6 0.00 0.08 0.08 79 1011.3
20260509205351 15 125 1.6 3.2 0.00 0.08 0.08 79 1011.3
20260509205307 15 114 3.2 4.8 0.00 0.08 0.08 79 1011.2
20260509205122 15 326 0.0 4.8 0.00 0.08 0.08 80 1011.3
20260509205038 15 191 3.2 4.8 0.00 0.08 0.08 80 1011.4
20260509204950 15 93 1.6 3.2 0.00 0.08 0.08 80 1011.3
20260509204825 15 0.0 1.6 0.00 0.08 0.08 79 1011.1
20260509204721 15 107 1.6 3.2 0.00 0.08 0.08 79 1011.1
20260509204616 15 81 3.2 4.8 0.00 0.08 0.08 79 1011.3
20260509204528 15 77 1.6 3.2 0.00 0.08 0.08 80 1011.5
20260509204424 15 0.0 3.2 0.00 0.08 0.08 80 1011.2
20260509204319 15 0.0 1.6 0.00 0.08 0.08 81 1011.1
20260509204215 15 5 0.0 3.2 0.00 0.08 0.08 80 1011.3
20260509204147 15 133 1.6 3.2 0.00 0.08 0.08 80 1011.1
20260509204022 15 132 0.0 3.2 0.00 0.08 0.08 79 1011.1
20260509203918 15 162 0.0 3.2 0.00 0.08 0.08 80 1011.3
20260509203830 14 157 0.0 1.6 0.00 0.08 0.08 81 1011.1